| time (UTC) | temp F | wind direction | speed MPH | gust MPH | rain 1hr in | rain 24hr in | rain mn in | humidity % | barometer mb |
| 20260901161003 | 86 | 321 | 3.0 | 6.0 | 0.00 | 0.00 | 0.00 | 59 | 1015.4 |
| 20260901160803 | 86 | 316 | 3.0 | 6.0 | 0.00 | 0.00 | 0.00 | 59 | 1015.4 |
| 20260901160603 | 86 | 310 | 4.0 | 6.0 | 0.00 | 0.00 | 0.00 | 59 | 1015.5 |
| 20260901160424 | 85 | 305 | 4.0 | 7.0 | 0.00 | 0.00 | 0.00 | 59 | 1015.5 |
| 20260901160203 | 85 | 305 | 3.0 | 7.0 | 0.00 | 0.00 | 0.00 | 59 | 1015.5 |
| 20260901160003 | 85 | 307 | 3.0 | 7.0 | 0.00 | 0.00 | 0.00 | 59 | 1015.5 |
| 20260901155803 | 85 | 310 | 3.0 | 7.0 | 0.00 | 0.00 | 0.00 | 59 | 1015.4 |
| 20260901155603 | 85 | 311 | 3.0 | 7.0 | 0.00 | 0.00 | 0.00 | 59 | 1015.4 |
| 20260901155403 | 85 | 313 | 4.0 | 7.0 | 0.00 | 0.00 | 0.00 | 59 | 1015.5 |
| 20260901155203 | 85 | 311 | 4.0 | 7.0 | 0.00 | 0.00 | 0.00 | 59 | 1015.5 |
| 20260901155003 | 85 | 311 | 4.0 | 7.0 | 0.00 | 0.00 | 0.00 | 58 | 1015.6 |
| 20260901154803 | 85 | 308 | 4.0 | 7.0 | 0.00 | 0.00 | 0.00 | 59 | 1015.6 |
| 20260901154603 | 85 | 307 | 4.0 | 7.0 | 0.00 | 0.00 | 0.00 | 59 | 1015.6 |
| 20260901154403 | 84 | 310 | 3.0 | 7.0 | 0.00 | 0.00 | 0.00 | 59 | 1015.6 |
| 20260901154203 | 84 | 315 | 3.0 | 6.0 | 0.00 | 0.00 | 0.00 | 60 | 1015.6 |
| 20260901154003 | 84 | 319 | 3.0 | 6.0 | 0.00 | 0.00 | 0.00 | 60 | 1015.6 |
| 20260901153803 | 84 | 329 | 3.0 | 7.0 | 0.00 | 0.00 | 0.00 | 60 | 1015.6 |
| 20260901153603 | 84 | 342 | 3.0 | 7.0 | 0.00 | 0.00 | 0.00 | 60 | 1015.7 |
| 20260901153403 | 84 | 347 | 3.0 | 7.0 | 0.00 | 0.00 | 0.00 | 60 | 1015.7 |
| 20260901153203 | 83 | 351 | 2.0 | 7.0 | 0.00 | 0.00 | 0.00 | 60 | 1015.7 |
| 20260901153024 | 83 | 1 | 2.0 | 7.0 | 0.00 | 0.00 | 0.00 | 61 | 1015.7 |
| 20260901152803 | 83 | 359 | 2.0 | 5.0 | 0.00 | 0.00 | 0.00 | 61 | 1015.6 |
| 20260901152603 | 83 | 357 | 2.0 | 5.0 | 0.00 | 0.00 | 0.00 | 61 | 1015.6 |
| 20260901152424 | 83 | 350 | 3.0 | 5.0 | 0.00 | 0.00 | 0.00 | 61 | 1015.6 |
| 20260901152224 | 83 | 345 | 3.0 | 6.0 | 0.00 | 0.00 | 0.00 | 61 | 1015.7 |
| 20260901152003 | 82 | 339 | 3.0 | 6.0 | 0.00 | 0.00 | 0.00 | 60 | 1015.7 |
| 20260901151803 | 83 | 339 | 3.0 | 6.0 | 0.00 | 0.00 | 0.00 | 60 | 1015.7 |
| 20260901151603 | 82 | 343 | 3.0 | 6.0 | 0.00 | 0.00 | 0.00 | 60 | 1015.7 |
| 20260901151403 | 82 | 351 | 3.0 | 6.0 | 0.00 | 0.00 | 0.00 | 60 | 1015.7 |
| 20260901151203 | 82 | 354 | 3.0 | 6.0 | 0.00 | 0.00 | 0.00 | 61 | 1015.7 |
| 20260901151003 | 82 | 357 | 3.0 | 6.0 | 0.00 | 0.00 | 0.00 | 61 | 1015.7 |
| 20260901150803 | 82 | 352 | 3.0 | 6.0 | 0.00 | 0.00 | 0.00 | 62 | 1015.8 |
| 20260901150603 | 82 | 352 | 3.0 | 6.0 | 0.00 | 0.00 | 0.00 | 61 | 1015.7 |
| 20260901150424 | 82 | 344 | 3.0 | 6.0 | 0.00 | 0.00 | 0.00 | 61 | 1015.8 |
| 20260901150203 | 82 | 339 | 3.0 | 8.0 | 0.00 | 0.00 | 0.00 | 61 | 1015.8 |
| 20260901150003 | 82 | 337 | 3.0 | 8.0 | 0.00 | 0.00 | 0.00 | 61 | 1015.8 |
| 20260901145824 | 82 | 342 | 3.0 | 8.0 | 0.00 | 0.00 | 0.00 | 60 | 1015.8 |
| 20260901145603 | 82 | 332 | 3.0 | 8.0 | 0.00 | 0.00 | 0.00 | 60 | 1015.8 |
| 20260901145403 | 81 | 328 | 3.0 | 8.0 | 0.00 | 0.00 | 0.00 | 61 | 1015.7 |
| 20260901145203 | 81 | 327 | 3.0 | 7.0 | 0.00 | 0.00 | 0.00 | 60 | 1015.7 |
| 20260901145003 | 81 | 323 | 3.0 | 6.0 | 0.00 | 0.00 | 0.00 | 62 | 1015.7 |
| 20260901144824 | 81 | 323 | 3.0 | 6.0 | 0.00 | 0.00 | 0.00 | 60 | 1015.7 |
| 20260901144603 | 81 | 331 | 3.0 | 6.0 | 0.00 | 0.00 | 0.00 | 61 | 1015.7 |
| 20260901144424 | 81 | 332 | 3.0 | 5.0 | 0.00 | 0.00 | 0.00 | 60 | 1015.6 |
| 20260901144203 | 81 | 333 | 3.0 | 6.0 | 0.00 | 0.00 | 0.00 | 61 | 1015.6 |
| 20260901144003 | 81 | 338 | 2.0 | 6.0 | 0.00 | 0.00 | 0.00 | 61 | 1015.6 |
| 20260901143803 | 80 | 335 | 2.0 | 6.0 | 0.00 | 0.00 | 0.00 | 61 | 1015.7 |
| 20260901143603 | 80 | 342 | 2.0 | 6.0 | 0.00 | 0.00 | 0.00 | 61 | 1015.7 |
| 20260901143403 | 80 | 348 | 2.0 | 6.0 | 0.00 | 0.00 | 0.00 | 61 | 1015.6 |
| 20260901143203 | 80 | 348 | 2.0 | 6.0 | 0.00 | 0.00 | 0.00 | 62 | 1015.5 |
| 20260901143003 | 80 | 348 | 2.0 | 6.0 | 0.00 | 0.00 | 0.00 | 62 | 1015.5 |
| 20260901142803 | 80 | 342 | 2.0 | 6.0 | 0.00 | 0.00 | 0.00 | 61 | 1015.5 |
| 20260901142624 | 80 | 328 | 2.0 | 6.0 | 0.00 | 0.00 | 0.00 | 61 | 1015.5 |
| 20260901142403 | 80 | 319 | 2.0 | 5.0 | 0.00 | 0.00 | 0.00 | 61 | 1015.5 |
| 20260901142203 | 80 | 310 | 2.0 | 7.0 | 0.00 | 0.00 | 0.00 | 61 | 1015.4 |
| 20260901142003 | 80 | 309 | 3.0 | 7.0 | 0.00 | 0.00 | 0.00 | 62 | 1015.5 |
| 20260901141803 | 80 | 310 | 3.0 | 7.0 | 0.00 | 0.00 | 0.00 | 61 | 1015.5 |
| 20260901141603 | 80 | 321 | 3.0 | 7.0 | 0.00 | 0.00 | 0.00 | 62 | 1015.6 |
| 20260901141403 | 79 | 322 | 3.0 | 7.0 | 0.00 | 0.00 | 0.00 | 61 | 1015.7 |
| 20260901141203 | 79 | 328 | 3.0 | 6.0 | 0.00 | 0.00 | 0.00 | 61 | 1015.7 |
| 20260901141003 | 80 | 320 | 3.0 | 5.0 | 0.00 | 0.00 | 0.00 | 61 | 1015.7 |
| 20260901140803 | 80 | 317 | 3.0 | 5.0 | 0.00 | 0.00 | 0.00 | 61 | 1015.7 |
| 20260901140603 | 80 | 316 | 3.0 | 5.0 | 0.00 | 0.00 | 0.00 | 61 | 1015.7 |
| 20260901140403 | 79 | 314 | 3.0 | 6.0 | 0.00 | 0.00 | 0.00 | 61 | 1015.6 |
| 20260901140224 | 79 | 311 | 3.0 | 6.0 | 0.00 | 0.00 | 0.00 | 61 | 1015.7 |
| 20260901140024 | 79 | 314 | 3.0 | 6.0 | 0.00 | 0.00 | 0.00 | 61 | 1015.7 |
| 20260901135803 | 79 | 318 | 3.0 | 6.0 | 0.00 | 0.00 | 0.00 | 61 | 1015.6 |
| 20260901135603 | 79 | 313 | 4.0 | 6.0 | 0.00 | 0.00 | 0.00 | 62 | 1015.6 |
| 20260901135403 | 79 | 315 | 4.0 | 9.0 | 0.00 | 0.00 | 0.00 | 62 | 1015.6 |
| 20260901135203 | 79 | 317 | 4.0 | 9.0 | 0.00 | 0.00 | 0.00 | 62 | 1015.5 |
| 20260901135003 | 79 | 316 | 4.0 | 9.0 | 0.00 | 0.00 | 0.00 | 62 | 1015.6 |
| 20260901134803 | 78 | 311 | 4.0 | 9.0 | 0.00 | 0.00 | 0.00 | 62 | 1015.6 |
| 20260901134603 | 78 | 308 | 4.0 | 9.0 | 0.00 | 0.00 | 0.00 | 61 | 1015.6 |
| 20260901134404 | 78 | 305 | 4.0 | 7.0 | 0.00 | 0.00 | 0.00 | 62 | 1015.5 |
| 20260901134203 | 78 | 303 | 4.0 | 7.0 | 0.00 | 0.00 | 0.00 | 62 | 1015.6 |
| 20260901134003 | 78 | 301 | 4.0 | 7.0 | 0.00 | 0.00 | 0.00 | 62 | 1015.6 |
| 20260901133803 | 78 | 302 | 4.0 | 7.0 | 0.00 | 0.00 | 0.00 | 62 | 1015.6 |
| 20260901133603 | 78 | 301 | 3.0 | 6.0 | 0.00 | 0.00 | 0.00 | 62 | 1015.6 |
| 20260901133403 | 78 | 300 | 3.0 | 6.0 | 0.00 | 0.00 | 0.00 | 62 | 1015.6 |
| 20260901133203 | 78 | 300 | 3.0 | 6.0 | 0.00 | 0.00 | 0.00 | 62 | 1015.6 |
| 20260901133024 | 77 | 304 | 3.0 | 6.0 | 0.00 | 0.00 | 0.00 | 63 | 1015.7 |
| 20260901132803 | 77 | 304 | 3.0 | 5.0 | 0.00 | 0.00 | 0.00 | 63 | 1015.7 |
| 20260901132603 | 77 | 305 | 3.0 | 5.0 | 0.00 | 0.00 | 0.00 | 63 | 1015.7 |
| 20260901132403 | 77 | 306 | 3.0 | 5.0 | 0.00 | 0.00 | 0.00 | 64 | 1015.7 |
| 20260901132203 | 77 | 305 | 3.0 | 5.0 | 0.00 | 0.00 | 0.00 | 64 | 1015.7 |
| 20260901132024 | 76 | 303 | 3.0 | 5.0 | 0.00 | 0.00 | 0.00 | 64 | 1015.7 |
| 20260901131803 | 76 | 304 | 2.0 | 5.0 | 0.00 | 0.00 | 0.00 | 64 | 1015.8 |
| 20260901131603 | 76 | 303 | 2.0 | 5.0 | 0.00 | 0.00 | 0.00 | 65 | 1015.8 |
| 20260901131403 | 76 | 303 | 2.0 | 5.0 | 0.00 | 0.00 | 0.00 | 64 | 1015.8 |
| 20260901131203 | 76 | 304 | 2.0 | 5.0 | 0.00 | 0.00 | 0.00 | 65 | 1015.8 |
| 20260901131003 | 75 | 302 | 2.0 | 5.0 | 0.00 | 0.00 | 0.00 | 66 | 1015.8 |
| 20260901130803 | 75 | 300 | 2.0 | 5.0 | 0.00 | 0.00 | 0.00 | 65 | 1015.8 |
| 20260901130603 | 75 | 300 | 2.0 | 5.0 | 0.00 | 0.00 | 0.00 | 65 | 1015.9 |
| 20260901130403 | 75 | 301 | 2.0 | 5.0 | 0.00 | 0.00 | 0.00 | 66 | 1015.9 |
| 20260901130203 | 75 | 300 | 2.0 | 5.0 | 0.00 | 0.00 | 0.00 | 66 | 1015.9 |
| 20260901130024 | 75 | 299 | 2.0 | 4.0 | 0.00 | 0.00 | 0.00 | 66 | 1015.9 |
| 20260901125803 | 75 | 301 | 2.0 | 4.0 | 0.00 | 0.00 | 0.00 | 66 | 1015.9 |
| 20260901125603 | 74 | 302 | 2.0 | 4.0 | 0.00 | 0.00 | 0.00 | 65 | 1015.9 |
| 20260901125403 | 74 | 303 | 2.0 | 4.0 | 0.00 | 0.00 | 0.00 | 66 | 1016.0 |
| 20260901125203 | 74 | 305 | 2.0 | 5.0 | 0.00 | 0.00 | 0.00 | 66 | 1015.9 |
| 20260901125024 | 74 | 304 | 1.0 | 5.0 | 0.00 | 0.00 | 0.00 | 66 | 1015.9 |
| 20260901124824 | 74 | 303 | 1.0 | 5.0 | 0.00 | 0.00 | 0.00 | 67 | 1015.9 |
| 20260901124603 | 74 | 304 | 1.0 | 5.0 | 0.00 | 0.00 | 0.00 | 67 | 1015.8 |
| 20260901124403 | 74 | 302 | 1.0 | 5.0 | 0.00 | 0.00 | 0.00 | 67 | 1015.9 |
| 20260901124224 | 74 | 297 | 0.0 | 3.0 | 0.00 | 0.00 | 0.00 | 67 | 1015.8 |
| 20260901124003 | 74 | 0 | 0.0 | 0.0 | 0.00 | 0.00 | 0.00 | 67 | 1015.8 |
| 20260901123803 | 74 | 0 | 0.0 | 0.0 | 0.00 | 0.00 | 0.00 | 68 | 1015.8 |
| 20260901123603 | 74 | 0 | 0.0 | 0.0 | 0.00 | 0.00 | 0.00 | 68 | 1015.8 |
| 20260901123403 | 73 | 0 | 0.0 | 0.0 | 0.00 | 0.00 | 0.00 | 69 | 1015.8 |
| 20260901123224 | 73 | 0 | 0.0 | 0.0 | 0.00 | 0.00 | 0.00 | 69 | 1015.7 |
| 20260901123024 | 73 | 0 | 0.0 | 0.0 | 0.00 | 0.00 | 0.00 | 68 | 1015.8 |
| 20260901122803 | 73 | 0 | 0.0 | 0.0 | 0.00 | 0.00 | 0.00 | 68 | 1015.8 |
| 20260901122603 | 73 | 0 | 0.0 | 0.0 | 0.00 | 0.00 | 0.00 | 68 | 1015.8 |
| 20260901122403 | 73 | 0 | 0.0 | 0.0 | 0.00 | 0.00 | 0.00 | 68 | 1015.8 |
| 20260901122224 | 73 | 0 | 0.0 | 0.0 | 0.00 | 0.00 | 0.00 | 68 | 1015.8 |
| 20260901122003 | 73 | 0 | 0.0 | 0.0 | 0.00 | 0.00 | 0.00 | 69 | 1015.7 |
| 20260901121803 | 72 | 0 | 0.0 | 0.0 | 0.00 | 0.00 | 0.00 | 69 | 1015.7 |
| 20260901121603 | 72 | 0 | 0.0 | 0.0 | 0.00 | 0.00 | 0.00 | 69 | 1015.7 |
| 20260901121403 | 72 | 0 | 0.0 | 0.0 | 0.00 | 0.00 | 0.00 | 69 | 1015.7 |
| 20260901121203 | 72 | 0 | 0.0 | 0.0 | 0.00 | 0.00 | 0.00 | 69 | 1015.7 |
| 20260901121003 | 72 | 0 | 0.0 | 0.0 | 0.00 | 0.00 | 0.00 | 69 | 1015.6 |
| 20260901120803 | 72 | 0 | 0.0 | 0.0 | 0.00 | 0.00 | 0.00 | 69 | 1015.6 |
| 20260901120603 | 72 | 0 | 0.0 | 0.0 | 0.00 | 0.00 | 0.00 | 68 | 1015.5 |
| 20260901120403 | 72 | 0 | 0.0 | 0.0 | 0.00 | 0.00 | 0.00 | 68 | 1015.6 |
| 20260901120224 | 72 | 0 | 0.0 | 0.0 | 0.00 | 0.00 | 0.00 | 69 | 1015.6 |
| 20260901120003 | 72 | 0 | 0.0 | 0.0 | 0.00 | 0.00 | 0.00 | 69 | 1015.6 |
| 20260901115803 | 72 | 0 | 0.0 | 0.0 | 0.00 | 0.00 | 0.00 | 69 | 1015.5 |
| 20260901115603 | 72 | 0 | 0.0 | 0.0 | 0.00 | 0.00 | 0.00 | 69 | 1015.5 |
| 20260901115403 | 72 | 0 | 0.0 | 0.0 | 0.00 | 0.00 | 0.00 | 69 | 1015.4 |
| 20260901115224 | 72 | 0 | 0.0 | 0.0 | 0.00 | 0.00 | 0.00 | 69 | 1015.4 |
| 20260901115003 | 72 | 0 | 0.0 | 0.0 | 0.00 | 0.00 | 0.00 | 69 | 1015.4 |
| 20260901114803 | 71 | 0 | 0.0 | 0.0 | 0.00 | 0.00 | 0.00 | 69 | 1015.3 |
| 20260901114603 | 71 | 0 | 0.0 | 0.0 | 0.00 | 0.00 | 0.00 | 69 | 1015.2 |
| 20260901114403 | 71 | 0 | 0.0 | 0.0 | 0.00 | 0.00 | 0.00 | 68 | 1015.1 |
| 20260901114203 | 71 | 0 | 0.0 | 0.0 | 0.00 | 0.00 | 0.00 | 68 | 1015.1 |
| 20260901114003 | 72 | 0 | 0.0 | 0.0 | 0.00 | 0.00 | 0.00 | 67 | 1015.1 |
| 20260901113803 | 72 | 0 | 0.0 | 0.0 | 0.00 | 0.00 | 0.00 | 67 | 1015.1 |
| 20260901113603 | 72 | 0 | 0.0 | 0.0 | 0.00 | 0.00 | 0.00 | 68 | 1015.0 |
| 20260901113403 | 72 | 0 | 0.0 | 0.0 | 0.00 | 0.00 | 0.00 | 68 | 1015.0 |
| 20260901113203 | 72 | 0 | 0.0 | 0.0 | 0.00 | 0.00 | 0.00 | 68 | 1015.0 |
| 20260901113003 | 72 | 0 | 0.0 | 0.0 | 0.00 | 0.00 | 0.00 | 68 | 1015.0 |
| 20260901112804 | 72 | 0 | 0.0 | 0.0 | 0.00 | 0.00 | 0.00 | 68 | 1015.1 |
| 20260901112603 | 72 | 0 | 0.0 | 0.0 | 0.00 | 0.00 | 0.00 | 68 | 1015.2 |
| 20260901112403 | 72 | 0 | 0.0 | 0.0 | 0.00 | 0.00 | 0.00 | 68 | 1015.1 |
| 20260901112203 | 72 | 0 | 0.0 | 0.0 | 0.00 | 0.00 | 0.00 | 68 | 1015.1 |
| 20260901112003 | 72 | 0 | 0.0 | 0.0 | 0.00 | 0.00 | 0.00 | 68 | 1015.1 |
| 20260901111803 | 72 | 0 | 0.0 | 0.0 | 0.00 | 0.00 | 0.00 | 68 | 1015.1 |
| 20260901111603 | 72 | 0 | 0.0 | 0.0 | 0.00 | 0.00 | 0.00 | 68 | 1015.1 |
| 20260901111403 | 72 | 0 | 0.0 | 0.0 | 0.00 | 0.00 | 0.00 | 68 | 1015.2 |
| 20260901111204 | 71 | 0 | 0.0 | 0.0 | 0.00 | 0.00 | 0.00 | 68 | 1015.2 |
| 20260901111024 | 71 | 0 | 0.0 | 0.0 | 0.00 | 0.00 | 0.00 | 68 | 1015.1 |
| 20260901110803 | 71 | 0 | 0.0 | 0.0 | 0.00 | 0.00 | 0.00 | 68 | 1015.2 |
| 20260901110603 | 71 | 0 | 0.0 | 0.0 | 0.00 | 0.00 | 0.00 | 68 | 1015.1 |
| 20260901110403 | 71 | 0 | 0.0 | 0.0 | 0.00 | 0.00 | 0.00 | 69 | 1015.1 |
| 20260901110203 | 71 | 0 | 0.0 | 0.0 | 0.00 | 0.00 | 0.00 | 69 | 1015.1 |
| 20260901110003 | 71 | 0 | 0.0 | 0.0 | 0.00 | 0.00 | 0.00 | 69 | 1015.1 |
| 20260901105803 | 71 | 0 | 0.0 | 0.0 | 0.00 | 0.00 | 0.00 | 69 | 1015.1 |
| 20260901105624 | 71 | 0 | 0.0 | 0.0 | 0.00 | 0.00 | 0.00 | 69 | 1015.1 |
| 20260901105403 | 71 | 0 | 0.0 | 0.0 | 0.00 | 0.00 | 0.00 | 69 | 1015.0 |
| 20260901105203 | 71 | 0 | 0.0 | 0.0 | 0.00 | 0.00 | 0.00 | 69 | 1015.1 |
| 20260901105003 | 71 | 0 | 0.0 | 0.0 | 0.00 | 0.00 | 0.00 | 69 | 1015.1 |
| 20260901104824 | 71 | 0 | 0.0 | 0.0 | 0.00 | 0.00 | 0.00 | 68 | 1015.0 |
| 20260901104603 | 71 | 0 | 0.0 | 0.0 | 0.00 | 0.00 | 0.00 | 68 | 1015.1 |
| 20260901104403 | 71 | 0 | 0.0 | 0.0 | 0.00 | 0.00 | 0.00 | 68 | 1015.0 |
| 20260901104203 | 71 | 0 | 0.0 | 0.0 | 0.00 | 0.00 | 0.00 | 68 | 1015.0 |
| 20260901104003 | 71 | 0 | 0.0 | 0.0 | 0.00 | 0.00 | 0.00 | 68 | 1015.0 |
| 20260901103803 | 71 | 0 | 0.0 | 0.0 | 0.00 | 0.00 | 0.00 | 68 | 1015.0 |
| 20260901103603 | 71 | 0 | 0.0 | 0.0 | 0.00 | 0.00 | 0.00 | 68 | 1015.0 |
| 20260901103403 | 71 | 0 | 0.0 | 0.0 | 0.00 | 0.00 | 0.00 | 68 | 1015.0 |
| 20260901103203 | 71 | 0 | 0.0 | 0.0 | 0.00 | 0.00 | 0.00 | 69 | 1014.9 |
| 20260901103003 | 71 | 0 | 0.0 | 0.0 | 0.00 | 0.00 | 0.00 | 68 | 1014.9 |
| 20260901102803 | 71 | 0 | 0.0 | 0.0 | 0.00 | 0.00 | 0.00 | 68 | 1014.9 |
| 20260901102603 | 71 | 0 | 0.0 | 0.0 | 0.00 | 0.00 | 0.00 | 68 | 1014.9 |
| 20260901102403 | 71 | 0 | 0.0 | 0.0 | 0.00 | 0.00 | 0.00 | 68 | 1014.9 |
| 20260901102203 | 71 | 0 | 0.0 | 0.0 | 0.00 | 0.00 | 0.00 | 68 | 1015.0 |
| 20260901102003 | 71 | 0 | 0.0 | 0.0 | 0.00 | 0.00 | 0.00 | 68 | 1015.0 |
| 20260901101803 | 71 | 0 | 0.0 | 0.0 | 0.00 | 0.00 | 0.00 | 68 | 1014.9 |
| 20260901101603 | 71 | 0 | 0.0 | 0.0 | 0.00 | 0.00 | 0.00 | 68 | 1015.0 |
| 20260901101403 | 71 | 0 | 0.0 | 0.0 | 0.00 | 0.00 | 0.00 | 68 | 1014.9 |
| 20260901101203 | 71 | 0 | 0.0 | 0.0 | 0.00 | 0.00 | 0.00 | 68 | 1014.9 |
| 20260901101003 | 71 | 0 | 0.0 | 0.0 | 0.00 | 0.00 | 0.00 | 68 | 1014.9 |
| 20260901100824 | 71 | 0 | 0.0 | 0.0 | 0.00 | 0.00 | 0.00 | 68 | 1014.9 |
| 20260901100603 | 71 | 0 | 0.0 | 0.0 | 0.00 | 0.00 | 0.00 | 69 | 1014.8 |
| 20260901100403 | 71 | 0 | 0.0 | 0.0 | 0.00 | 0.00 | 0.00 | 69 | 1014.9 |
| 20260901100203 | 71 | 0 | 0.0 | 0.0 | 0.00 | 0.00 | 0.00 | 69 | 1014.9 |
| 20260901100003 | 71 | 0 | 0.0 | 0.0 | 0.00 | 0.00 | 0.00 | 69 | 1014.9 |
| 20260901095803 | 71 | 0 | 0.0 | 0.0 | 0.00 | 0.00 | 0.00 | 68 | 1014.9 |
| 20260901095603 | 71 | 0 | 0.0 | 0.0 | 0.00 | 0.00 | 0.00 | 68 | 1014.9 |
| 20260901095403 | 71 | 0 | 0.0 | 0.0 | 0.00 | 0.00 | 0.00 | 69 | 1014.9 |
| 20260901095203 | 71 | 0 | 0.0 | 0.0 | 0.00 | 0.00 | 0.00 | 69 | 1014.9 |
| 20260901095003 | 71 | 0 | 0.0 | 0.0 | 0.00 | 0.00 | 0.00 | 69 | 1014.9 |
| 20260901094803 | 71 | 0 | 0.0 | 0.0 | 0.00 | 0.00 | 0.00 | 68 | 1014.9 |
| 20260901094603 | 71 | 0 | 0.0 | 0.0 | 0.00 | 0.00 | 0.00 | 68 | 1014.9 |
| 20260901094424 | 71 | 0 | 0.0 | 0.0 | 0.00 | 0.00 | 0.00 | 69 | 1014.9 |
| 20260901094203 | 71 | 0 | 0.0 | 0.0 | 0.00 | 0.00 | 0.00 | 68 | 1014.8 |
| 20260901094003 | 71 | 0 | 0.0 | 0.0 | 0.00 | 0.00 | 0.00 | 68 | 1014.9 |
| 20260901093803 | 71 | 0 | 0.0 | 0.0 | 0.00 | 0.00 | 0.00 | 68 | 1014.8 |
| 20260901093603 | 71 | 0 | 0.0 | 0.0 | 0.00 | 0.00 | 0.00 | 69 | 1014.8 |
| 20260901093403 | 71 | 0 | 0.0 | 0.0 | 0.00 | 0.00 | 0.00 | 69 | 1014.8 |
| 20260901093203 | 71 | 0 | 0.0 | 0.0 | 0.00 | 0.00 | 0.00 | 69 | 1014.8 |
| 20260901093024 | 71 | 0 | 0.0 | 0.0 | 0.00 | 0.00 | 0.00 | 69 | 1014.8 |
| 20260901092803 | 71 | 0 | 0.0 | 0.0 | 0.00 | 0.00 | 0.00 | 69 | 1014.8 |
| 20260901092603 | 71 | 0 | 0.0 | 0.0 | 0.00 | 0.00 | 0.00 | 69 | 1014.8 |
| 20260901092403 | 71 | 0 | 0.0 | 0.0 | 0.00 | 0.00 | 0.00 | 69 | 1014.8 |
| 20260901092203 | 71 | 0 | 0.0 | 0.0 | 0.00 | 0.00 | 0.00 | 69 | 1014.8 |
| 20260901092003 | 71 | 0 | 0.0 | 0.0 | 0.00 | 0.00 | 0.00 | 69 | 1014.8 |
| 20260901091803 | 71 | 0 | 0.0 | 0.0 | 0.00 | 0.00 | 0.00 | 69 | 1014.8 |
| 20260901091603 | 71 | 0 | 0.0 | 0.0 | 0.00 | 0.00 | 0.00 | 69 | 1014.8 |
| 20260901091403 | 71 | 0 | 0.0 | 0.0 | 0.00 | 0.00 | 0.00 | 69 | 1014.8 |
| 20260901091203 | 71 | 0 | 0.0 | 0.0 | 0.00 | 0.00 | 0.00 | 69 | 1014.8 |
| 20260901091024 | 71 | 0 | 0.0 | 0.0 | 0.00 | 0.00 | 0.00 | 69 | 1014.8 |
| 20260901090803 | 71 | 0 | 0.0 | 0.0 | 0.00 | 0.00 | 0.00 | 69 | 1014.8 |
| 20260901090603 | 71 | 0 | 0.0 | 0.0 | 0.00 | 0.00 | 0.00 | 69 | 1014.8 |
| 20260901090403 | 71 | 0 | 0.0 | 0.0 | 0.00 | 0.00 | 0.00 | 69 | 1014.8 |
| 20260901090203 | 71 | 0 | 0.0 | 0.0 | 0.00 | 0.00 | 0.00 | 69 | 1014.8 |
| 20260901090003 | 71 | 0 | 0.0 | 0.0 | 0.00 | 0.00 | 0.00 | 69 | 1014.8 |
| 20260901085803 | 71 | 0 | 0.0 | 0.0 | 0.00 | 0.00 | 0.00 | 69 | 1014.8 |
| 20260901085603 | 71 | 0 | 0.0 | 0.0 | 0.00 | 0.00 | 0.00 | 69 | 1014.8 |
| 20260901085403 | 71 | 0 | 0.0 | 0.0 | 0.00 | 0.00 | 0.00 | 69 | 1014.8 |
| 20260901085203 | 71 | 0 | 0.0 | 0.0 | 0.00 | 0.00 | 0.00 | 69 | 1014.8 |
| 20260901085003 | 71 | 0 | 0.0 | 0.0 | 0.00 | 0.00 | 0.00 | 69 | 1014.7 |
| 20260901084803 | 71 | 0 | 0.0 | 0.0 | 0.00 | 0.00 | 0.00 | 69 | 1014.7 |
| 20260901084603 | 71 | 0 | 0.0 | 0.0 | 0.00 | 0.00 | 0.00 | 69 | 1014.7 |
| 20260901084424 | 71 | 0 | 0.0 | 0.0 | 0.00 | 0.00 | 0.00 | 70 | 1014.7 |
| 20260901084203 | 71 | 0 | 0.0 | 0.0 | 0.00 | 0.00 | 0.00 | 69 | 1014.7 |
| 20260901084024 | 71 | 0 | 0.0 | 0.0 | 0.00 | 0.00 | 0.00 | 69 | 1014.6 |
| 20260901083803 | 71 | 0 | 0.0 | 0.0 | 0.00 | 0.00 | 0.00 | 69 | 1014.6 |
| 20260901083603 | 71 | 0 | 0.0 | 0.0 | 0.00 | 0.00 | 0.00 | 69 | 1014.6 |
| 20260901083403 | 71 | 0 | 0.0 | 0.0 | 0.00 | 0.00 | 0.00 | 68 | 1014.6 |
| 20260901083203 | 71 | 0 | 0.0 | 0.0 | 0.00 | 0.00 | 0.00 | 69 | 1014.5 |
| 20260901083003 | 71 | 0 | 0.0 | 0.0 | 0.00 | 0.00 | 0.00 | 69 | 1014.5 |
| 20260901082824 | 71 | 0 | 0.0 | 0.0 | 0.00 | 0.00 | 0.00 | 69 | 1014.5 |
| 20260901082624 | 71 | 0 | 0.0 | 0.0 | 0.00 | 0.00 | 0.00 | 69 | 1014.6 |
| 20260901082424 | 71 | 0 | 0.0 | 0.0 | 0.00 | 0.00 | 0.00 | 68 | 1014.6 |
| 20260901082203 | 71 | 0 | 0.0 | 0.0 | 0.00 | 0.00 | 0.00 | 68 | 1014.6 |
| 20260901082003 | 71 | 0 | 0.0 | 0.0 | 0.00 | 0.00 | 0.00 | 68 | 1014.6 |
| 20260901081803 | 71 | 0 | 0.0 | 0.0 | 0.00 | 0.00 | 0.00 | 68 | 1014.7 |
| 20260901081624 | 71 | 0 | 0.0 | 0.0 | 0.00 | 0.00 | 0.00 | 68 | 1014.7 |
| 20260901081403 | 72 | 0 | 0.0 | 0.0 | 0.00 | 0.00 | 0.00 | 68 | 1014.6 |
| 20260901081203 | 72 | 0 | 0.0 | 0.0 | 0.00 | 0.00 | 0.00 | 68 | 1014.6 |
| 20260901081003 | 72 | 0 | 0.0 | 0.0 | 0.00 | 0.00 | 0.00 | 68 | 1014.6 |
| 20260901080803 | 71 | 0 | 0.0 | 0.0 | 0.00 | 0.00 | 0.00 | 68 | 1014.6 |
| 20260901080603 | 72 | 0 | 0.0 | 0.0 | 0.00 | 0.00 | 0.00 | 67 | 1014.6 |
| 20260901080403 | 72 | 0 | 0.0 | 0.0 | 0.00 | 0.00 | 0.00 | 67 | 1014.6 |
| 20260901080203 | 72 | 0 | 0.0 | 0.0 | 0.00 | 0.00 | 0.00 | 66 | 1014.6 |
| 20260901080003 | 72 | 0 | 0.0 | 0.0 | 0.00 | 0.00 | 0.00 | 66 | 1014.6 |
| 20260901075803 | 72 | 0 | 0.0 | 0.0 | 0.00 | 0.00 | 0.00 | 66 | 1014.6 |
| 20260901075603 | 72 | 0 | 0.0 | 0.0 | 0.00 | 0.00 | 0.00 | 67 | 1014.6 |
| 20260901075403 | 72 | 0 | 0.0 | 0.0 | 0.00 | 0.00 | 0.00 | 66 | 1014.6 |
| 20260901075203 | 72 | 0 | 0.0 | 0.0 | 0.00 | 0.00 | 0.00 | 66 | 1014.6 |
| 20260901075003 | 72 | 0 | 0.0 | 0.0 | 0.00 | 0.00 | 0.00 | 66 | 1014.7 |
| 20260901074803 | 72 | 0 | 0.0 | 0.0 | 0.00 | 0.00 | 0.00 | 66 | 1014.6 |
| 20260901074603 | 72 | 0 | 0.0 | 0.0 | 0.00 | 0.00 | 0.00 | 66 | 1014.7 |
| 20260901074403 | 73 | 0 | 0.0 | 0.0 | 0.00 | 0.00 | 0.00 | 66 | 1014.6 |
| 20260901074203 | 73 | 0 | 0.0 | 0.0 | 0.00 | 0.00 | 0.00 | 66 | 1014.6 |
| 20260901074003 | 73 | 0 | 0.0 | 0.0 | 0.00 | 0.00 | 0.00 | 66 | 1014.6 |
| 20260901073803 | 73 | 0 | 0.0 | 0.0 | 0.00 | 0.00 | 0.00 | 66 | 1014.6 |
| 20260901073603 | 73 | 0 | 0.0 | 0.0 | 0.00 | 0.00 | 0.00 | 66 | 1014.6 |
| 20260901073403 | 73 | 0 | 0.0 | 0.0 | 0.00 | 0.00 | 0.00 | 67 | 1014.6 |
| 20260901073203 | 73 | 0 | 0.0 | 0.0 | 0.00 | 0.00 | 0.00 | 67 | 1014.6 |
| 20260901073003 | 73 | 0 | 0.0 | 0.0 | 0.00 | 0.00 | 0.00 | 67 | 1014.6 |
| 20260901072803 | 73 | 0 | 0.0 | 0.0 | 0.00 | 0.00 | 0.00 | 67 | 1014.6 |
| 20260901072603 | 73 | 0 | 0.0 | 0.0 | 0.00 | 0.00 | 0.00 | 67 | 1014.7 |
| 20260901072403 | 73 | 0 | 0.0 | 0.0 | 0.00 | 0.00 | 0.00 | 67 | 1014.7 |
| 20260901072203 | 73 | 0 | 0.0 | 0.0 | 0.00 | 0.00 | 0.00 | 67 | 1014.6 |
| 20260901072003 | 73 | 0 | 0.0 | 0.0 | 0.00 | 0.00 | 0.00 | 68 | 1014.6 |
| 20260901071803 | 72 | 0 | 0.0 | 0.0 | 0.00 | 0.00 | 0.00 | 68 | 1014.6 |
| 20260901071603 | 72 | 0 | 0.0 | 0.0 | 0.00 | 0.00 | 0.00 | 68 | 1014.6 |
| 20260901071424 | 72 | 0 | 0.0 | 0.0 | 0.00 | 0.00 | 0.00 | 68 | 1014.6 |
| 20260901071203 | 72 | 0 | 0.0 | 0.0 | 0.00 | 0.00 | 0.00 | 68 | 1014.6 |
| 20260901071003 | 72 | 0 | 0.0 | 0.0 | 0.00 | 0.00 | 0.00 | 68 | 1014.6 |
| 20260901070803 | 72 | 0 | 0.0 | 0.0 | 0.00 | 0.00 | 0.00 | 69 | 1014.7 |
| 20260901070624 | 72 | 0 | 0.0 | 0.0 | 0.00 | 0.00 | 0.00 | 69 | 1014.6 |
| 20260901070403 | 72 | 0 | 0.0 | 0.0 | 0.00 | 0.00 | 0.00 | 68 | 1014.6 |
| 20260901070203 | 72 | 0 | 0.0 | 0.0 | 0.00 | 0.00 | 0.00 | 69 | 1014.6 |
| 20260901070003 | 72 | 0 | 0.0 | 0.0 | 0.00 | 0.00 | 0.00 | 69 | 1014.6 |
| 20260901065803 | 72 | 0 | 0.0 | 0.0 | 0.00 | 0.00 | 0.00 | 69 | 1014.6 |
| 20260901065603 | 72 | 0 | 0.0 | 0.0 | 0.00 | 0.00 | 0.00 | 69 | 1014.6 |
| 20260901065424 | 72 | 0 | 0.0 | 0.0 | 0.00 | 0.00 | 0.00 | 69 | 1014.6 |
| 20260901065203 | 72 | 0 | 0.0 | 0.0 | 0.00 | 0.00 | 0.00 | 69 | 1014.6 |
| 20260901065003 | 72 | 0 | 0.0 | 0.0 | 0.00 | 0.00 | 0.00 | 69 | 1014.6 |
| 20260901064803 | 72 | 0 | 0.0 | 0.0 | 0.00 | 0.00 | 0.00 | 68 | 1014.6 |
| 20260901064603 | 72 | 0 | 0.0 | 0.0 | 0.00 | 0.00 | 0.00 | 68 | 1014.6 |
| 20260901064403 | 72 | 0 | 0.0 | 0.0 | 0.00 | 0.00 | 0.00 | 68 | 1014.6 |
| 20260901064224 | 72 | 0 | 0.0 | 0.0 | 0.00 | 0.00 | 0.00 | 68 | 1014.6 |
| 20260901064003 | 72 | 0 | 0.0 | 0.0 | 0.00 | 0.00 | 0.00 | 68 | 1014.6 |
| 20260901063803 | 72 | 0 | 0.0 | 0.0 | 0.00 | 0.00 | 0.00 | 68 | 1014.6 |
| 20260901063624 | 72 | 0 | 0.0 | 0.0 | 0.00 | 0.00 | 0.00 | 67 | 1014.6 |
| 20260901063403 | 72 | 0 | 0.0 | 0.0 | 0.00 | 0.00 | 0.00 | 67 | 1014.7 |
| 20260901063224 | 72 | 0 | 0.0 | 0.0 | 0.00 | 0.00 | 0.00 | 68 | 1014.7 |
| 20260901063003 | 72 | 0 | 0.0 | 0.0 | 0.00 | 0.00 | 0.00 | 67 | 1014.7 |
| 20260901062804 | 73 | 0 | 0.0 | 0.0 | 0.00 | 0.00 | 0.00 | 68 | 1014.6 |
| 20260901062603 | 73 | 0 | 0.0 | 0.0 | 0.00 | 0.00 | 0.00 | 68 | 1014.6 |
| 20260901062404 | 73 | 0 | 0.0 | 0.0 | 0.00 | 0.00 | 0.00 | 68 | 1014.7 |
| 20260901062203 | 73 | 0 | 0.0 | 0.0 | 0.00 | 0.00 | 0.00 | 67 | 1014.7 |
| 20260901062003 | 73 | 0 | 0.0 | 0.0 | 0.00 | 0.00 | 0.00 | 67 | 1014.7 |
| 20260901061803 | 73 | 0 | 0.0 | 0.0 | 0.00 | 0.00 | 0.00 | 67 | 1014.7 |
| 20260901061603 | 73 | 0 | 0.0 | 0.0 | 0.00 | 0.00 | 0.00 | 67 | 1014.7 |
| 20260901061403 | 73 | 0 | 0.0 | 0.0 | 0.00 | 0.00 | 0.00 | 67 | 1014.7 |
| 20260901061203 | 73 | 0 | 0.0 | 0.0 | 0.00 | 0.00 | 0.00 | 67 | 1014.8 |
| 20260901061003 | 73 | 0 | 0.0 | 0.0 | 0.00 | 0.00 | 0.00 | 67 | 1014.8 |
| 20260901060803 | 73 | 0 | 0.0 | 0.0 | 0.00 | 0.00 | 0.00 | 67 | 1014.7 |
| 20260901060603 | 73 | 0 | 0.0 | 0.0 | 0.00 | 0.00 | 0.00 | 66 | 1014.7 |
| 20260901060403 | 74 | 0 | 0.0 | 0.0 | 0.00 | 0.00 | 0.00 | 66 | 1014.7 |
| 20260901060203 | 74 | 0 | 0.0 | 0.0 | 0.00 | 0.00 | 0.00 | 66 | 1014.7 |
| 20260901060003 | 74 | 0 | 0.0 | 0.0 | 0.00 | 0.00 | 0.00 | 65 | 1014.8 |
| 20260901055803 | 74 | 0 | 0.0 | 0.0 | 0.00 | 0.00 | 0.00 | 66 | 1014.8 |
| 20260901055603 | 74 | 0 | 0.0 | 0.0 | 0.00 | 0.00 | 0.00 | 66 | 1014.8 |
| 20260901055403 | 74 | 0 | 0.0 | 0.0 | 0.00 | 0.00 | 0.00 | 65 | 1014.8 |
| 20260901055203 | 74 | 0 | 0.0 | 0.0 | 0.00 | 0.00 | 0.00 | 65 | 1014.8 |
| 20260901055003 | 74 | 0 | 0.0 | 0.0 | 0.00 | 0.00 | 0.00 | 65 | 1014.8 |
| 20260901054824 | 74 | 0 | 0.0 | 0.0 | 0.00 | 0.00 | 0.00 | 65 | 1014.8 |
| 20260901054603 | 75 | 0 | 0.0 | 0.0 | 0.00 | 0.00 | 0.00 | 65 | 1014.8 |
| 20260901054403 | 75 | 0 | 0.0 | 0.0 | 0.00 | 0.00 | 0.00 | 65 | 1014.8 |
| 20260901054203 | 75 | 0 | 0.0 | 0.0 | 0.00 | 0.00 | 0.00 | 65 | 1014.9 |
| 20260901054003 | 75 | 0 | 0.0 | 0.0 | 0.00 | 0.00 | 0.00 | 65 | 1014.8 |
| 20260901053803 | 75 | 0 | 0.0 | 0.0 | 0.00 | 0.00 | 0.00 | 65 | 1014.8 |
| 20260901053603 | 75 | 0 | 0.0 | 0.0 | 0.00 | 0.00 | 0.00 | 65 | 1014.8 |
| 20260901053403 | 74 | 0 | 0.0 | 0.0 | 0.00 | 0.00 | 0.00 | 66 | 1014.9 |
| 20260901053203 | 74 | 0 | 0.0 | 0.0 | 0.00 | 0.00 | 0.00 | 66 | 1014.8 |
| 20260901053003 | 74 | 0 | 0.0 | 0.0 | 0.00 | 0.00 | 0.00 | 66 | 1014.9 |
| 20260901052824 | 74 | 0 | 0.0 | 0.0 | 0.00 | 0.00 | 0.00 | 65 | 1014.8 |
| 20260901052603 | 75 | 0 | 0.0 | 0.0 | 0.00 | 0.00 | 0.00 | 65 | 1014.8 |
| 20260901052403 | 75 | 0 | 0.0 | 0.0 | 0.00 | 0.00 | 0.00 | 65 | 1014.8 |
| 20260901052203 | 75 | 0 | 0.0 | 0.0 | 0.00 | 0.00 | 0.00 | 65 | 1014.7 |
| 20260901052004 | 75 | 0 | 0.0 | 0.0 | 0.00 | 0.00 | 0.00 | 65 | 1014.8 |
| 20260901051803 | 75 | 0 | 0.0 | 0.0 | 0.00 | 0.00 | 0.00 | 65 | 1014.7 |
| 20260901051603 | 75 | 0 | 0.0 | 0.0 | 0.00 | 0.00 | 0.00 | 65 | 1014.8 |
| 20260901051403 | 75 | 0 | 0.0 | 0.0 | 0.00 | 0.00 | 0.00 | 65 | 1014.8 |
| 20260901051203 | 75 | 0 | 0.0 | 0.0 | 0.00 | 0.00 | 0.00 | 65 | 1014.7 |
| 20260901051003 | 75 | 0 | 0.0 | 0.0 | 0.00 | 0.00 | 0.00 | 66 | 1014.7 |
| 20260901050803 | 75 | 0 | 0.0 | 0.0 | 0.00 | 0.00 | 0.00 | 66 | 1014.7 |
| 20260901050603 | 75 | 0 | 0.0 | 0.0 | 0.00 | 0.00 | 0.00 | 66 | 1014.7 |
| 20260901050403 | 75 | 0 | 0.0 | 0.0 | 0.00 | 0.00 | 0.00 | 66 | 1014.7 |
| 20260901050203 | 75 | 0 | 0.0 | 0.0 | 0.00 | 0.00 | 0.00 | 66 | 1014.7 |
| 20260901050003 | 75 | 0 | 0.0 | 0.0 | 0.00 | 0.00 | 0.00 | 67 | 1014.7 |
| 20260901045803 | 75 | 0 | 0.0 | 0.0 | 0.00 | 0.00 | 0.00 | 67 | 1014.7 |
| 20260901045603 | 75 | 0 | 0.0 | 0.0 | 0.00 | 0.00 | 0.00 | 68 | 1014.7 |
| 20260901045403 | 74 | 0 | 0.0 | 0.0 | 0.00 | 0.00 | 0.00 | 68 | 1014.7 |
| 20260901045203 | 74 | 0 | 0.0 | 0.0 | 0.00 | 0.00 | 0.00 | 68 | 1014.7 |
| 20260901045003 | 74 | 0 | 0.0 | 0.0 | 0.00 | 0.00 | 0.00 | 69 | 1014.6 |
| 20260901044803 | 74 | 0 | 0.0 | 0.0 | 0.00 | 0.00 | 0.00 | 69 | 1014.6 |
| 20260901044603 | 74 | 0 | 0.0 | 0.0 | 0.00 | 0.00 | 0.00 | 69 | 1014.6 |
| 20260901044403 | 74 | 0 | 0.0 | 0.0 | 0.00 | 0.00 | 0.00 | 70 | 1014.5 |
| 20260901044203 | 74 | 0 | 0.0 | 0.0 | 0.00 | 0.00 | 0.00 | 70 | 1014.5 |
| 20260901044003 | 74 | 0 | 0.0 | 0.0 | 0.00 | 0.00 | 0.00 | 70 | 1014.5 |
| 20260901043803 | 74 | 0 | 0.0 | 0.0 | 0.00 | 0.00 | 0.00 | 70 | 1014.5 |
| 20260901043624 | 74 | 0 | 0.0 | 0.0 | 0.00 | 0.00 | 0.00 | 70 | 1014.5 |
| 20260901043403 | 74 | 0 | 0.0 | 0.0 | 0.00 | 0.00 | 0.00 | 70 | 1014.5 |
| 20260901043203 | 74 | 0 | 0.0 | 0.0 | 0.00 | 0.00 | 0.00 | 70 | 1014.5 |
| 20260901043003 | 74 | 0 | 0.0 | 0.0 | 0.00 | 0.00 | 0.00 | 70 | 1014.4 |
| 20260901042803 | 74 | 0 | 0.0 | 0.0 | 0.00 | 0.00 | 0.00 | 70 | 1014.6 |
| 20260901042624 | 74 | 0 | 0.0 | 0.0 | 0.00 | 0.00 | 0.00 | 69 | 1014.6 |
| 20260901042403 | 74 | 0 | 0.0 | 0.0 | 0.00 | 0.00 | 0.00 | 69 | 1014.6 |
| 20260901042224 | 74 | 0 | 0.0 | 0.0 | 0.00 | 0.00 | 0.00 | 69 | 1014.6 |
| 20260901042003 | 74 | 0 | 0.0 | 0.0 | 0.00 | 0.00 | 0.00 | 70 | 1014.7 |
| 20260901041803 | 74 | 0 | 0.0 | 0.0 | 0.00 | 0.00 | 0.00 | 70 | 1014.7 |
| 20260901041603 | 74 | 0 | 0.0 | 0.0 | 0.00 | 0.00 | 0.00 | 70 | 1014.6 |
| 20260901041403 | 74 | 0 | 0.0 | 0.0 | 0.00 | 0.00 | 0.00 | 70 | 1014.7 |
| 20260901041203 | 74 | 0 | 0.0 | 0.0 | 0.00 | 0.00 | 0.00 | 70 | 1014.6 |
| 20260901041003 | 74 | 0 | 0.0 | 0.0 | 0.00 | 0.00 | 0.00 | 70 | 1014.7 |
| 20260901040803 | 74 | 0 | 0.0 | 0.0 | 0.00 | 0.00 | 0.00 | 70 | 1014.6 |
| 20260901040603 | 74 | 0 | 0.0 | 0.0 | 0.00 | 0.00 | 0.00 | 70 | 1014.6 |
| 20260901040403 | 74 | 0 | 0.0 | 0.0 | 0.00 | 0.00 | 0.00 | 70 | 1014.6 |
| 20260901040203 | 74 | 0 | 0.0 | 0.0 | 0.00 | 0.00 | 0.00 | 71 | 1014.6 |
| 20260901040004 | 74 | 0 | 0.0 | 0.0 | 0.00 | 0.00 | 0.00 | 71 | 1014.6 |
| 20260901035824 | 74 | 0 | 0.0 | 0.0 | 0.00 | 0.00 | 0.00 | 71 | 1014.6 |
| 20260901035603 | 74 | 0 | 0.0 | 0.0 | 0.00 | 0.00 | 0.00 | 71 | 1014.7 |
| 20260901035403 | 74 | 0 | 0.0 | 0.0 | 0.00 | 0.00 | 0.00 | 71 | 1014.7 |
| 20260901035203 | 74 | 0 | 0.0 | 0.0 | 0.00 | 0.00 | 0.00 | 71 | 1014.7 |
| 20260901035003 | 74 | 0 | 0.0 | 0.0 | 0.00 | 0.00 | 0.00 | 72 | 1014.7 |
| 20260901034803 | 74 | 0 | 0.0 | 0.0 | 0.00 | 0.00 | 0.00 | 72 | 1014.7 |
| 20260901034603 | 74 | 0 | 0.0 | 0.0 | 0.00 | 0.00 | 0.00 | 72 | 1014.7 |
| 20260901034403 | 74 | 0 | 0.0 | 0.0 | 0.00 | 0.00 | 0.00 | 72 | 1014.8 |
| 20260901034203 | 74 | 0 | 0.0 | 0.0 | 0.00 | 0.00 | 0.00 | 72 | 1014.8 |
| 20260901034003 | 74 | 0 | 0.0 | 0.0 | 0.00 | 0.00 | 0.00 | 72 | 1014.8 |
| 20260901033803 | 73 | 0 | 0.0 | 0.0 | 0.00 | 0.00 | 0.00 | 71 | 1014.8 |
| 20260901033624 | 73 | 0 | 0.0 | 0.0 | 0.00 | 0.00 | 0.00 | 71 | 1014.8 |
| 20260901033424 | 73 | 302 | 0.0 | 1.0 | 0.00 | 0.00 | 0.00 | 70 | 1014.7 |
| 20260901033203 | 73 | 302 | 0.0 | 1.0 | 0.00 | 0.00 | 0.00 | 70 | 1014.7 |
| 20260901033003 | 73 | 302 | 0.0 | 1.0 | 0.00 | 0.00 | 0.00 | 70 | 1014.7 |
| 20260901032803 | 73 | 302 | 0.0 | 1.0 | 0.00 | 0.00 | 0.00 | 71 | 1014.7 |
| 20260901032603 | 73 | 302 | 0.0 | 1.0 | 0.00 | 0.00 | 0.00 | 70 | 1014.8 |
| 20260901032403 | 74 | 302 | 0.0 | 1.0 | 0.00 | 0.00 | 0.00 | 70 | 1014.8 |
| 20260901032203 | 73 | 302 | 0.0 | 1.0 | 0.00 | 0.00 | 0.00 | 70 | 1014.9 |
| 20260901032003 | 73 | 302 | 0.0 | 1.0 | 0.00 | 0.00 | 0.00 | 70 | 1014.9 |
| 20260901031824 | 73 | 302 | 0.0 | 1.0 | 0.00 | 0.00 | 0.00 | 70 | 1015.0 |
| 20260901031603 | 74 | 302 | 0.0 | 1.0 | 0.00 | 0.00 | 0.00 | 70 | 1015.0 |
| 20260901031403 | 74 | 302 | 0.0 | 1.0 | 0.00 | 0.00 | 0.00 | 70 | 1014.9 |
| 20260901031224 | 74 | 302 | 0.0 | 1.0 | 0.00 | 0.00 | 0.00 | 70 | 1015.0 |
| 20260901031024 | 74 | 0 | 0.0 | 0.0 | 0.00 | 0.00 | 0.00 | 70 | 1015.0 |
| 20260901030803 | 74 | 302 | 0.0 | 1.0 | 0.00 | 0.00 | 0.00 | 70 | 1015.0 |
| 20260901030625 | 74 | 302 | 0.0 | 1.0 | 0.00 | 0.00 | 0.00 | 70 | 1015.0 |
| 20260901030403 | 74 | 302 | 0.0 | 1.0 | 0.00 | 0.00 | 0.00 | 70 | 1015.0 |
| 20260901030224 | 74 | 302 | 0.0 | 1.0 | 0.00 | 0.00 | 0.00 | 70 | 1015.0 |
| 20260901030024 | 74 | 302 | 0.0 | 1.0 | 0.00 | 0.00 | 0.00 | 70 | 1015.1 |
| 20260901025824 | 74 | 302 | 0.0 | 1.0 | 0.00 | 0.00 | 0.00 | 69 | 1015.0 |
| 20260901025603 | 74 | 302 | 0.0 | 1.0 | 0.00 | 0.00 | 0.00 | 69 | 1015.0 |
| 20260901025403 | 74 | 302 | 0.0 | 1.0 | 0.00 | 0.00 | 0.00 | 69 | 1014.9 |
| 20260901025203 | 74 | 302 | 0.0 | 1.0 | 0.00 | 0.00 | 0.00 | 70 | 1015.0 |
| 20260901025003 | 74 | 302 | 0.0 | 1.0 | 0.00 | 0.00 | 0.00 | 70 | 1015.0 |
| 20260901024803 | 74 | 302 | 0.0 | 1.0 | 0.00 | 0.00 | 0.00 | 70 | 1015.0 |
| 20260901024603 | 74 | 302 | 0.0 | 1.0 | 0.00 | 0.00 | 0.00 | 69 | 1015.0 |
| 20260901024403 | 74 | 302 | 0.0 | 1.0 | 0.00 | 0.00 | 0.00 | 69 | 1015.1 |
| 20260901024203 | 74 | 302 | 0.0 | 1.0 | 0.00 | 0.00 | 0.00 | 69 | 1015.1 |
| 20260901024024 | 74 | 302 | 0.0 | 1.0 | 0.00 | 0.00 | 0.00 | 70 | 1015.1 |
| 20260901023824 | 74 | 302 | 0.0 | 1.0 | 0.00 | 0.00 | 0.00 | 70 | 1015.1 |
| 20260901023624 | 74 | 0 | 0.0 | 0.0 | 0.00 | 0.00 | 0.00 | 69 | 1015.1 |
| 20260901023403 | 74 | 0 | 0.0 | 0.0 | 0.00 | 0.00 | 0.00 | 69 | 1015.2 |
| 20260901023203 | 74 | 0 | 0.0 | 0.0 | 0.00 | 0.00 | 0.00 | 69 | 1015.1 |
| 20260901023003 | 74 | 0 | 0.0 | 0.0 | 0.00 | 0.00 | 0.00 | 69 | 1015.1 |
| 20260901022803 | 74 | 0 | 0.0 | 0.0 | 0.00 | 0.00 | 0.00 | 68 | 1015.1 |
| 20260901022603 | 74 | 0 | 0.0 | 0.0 | 0.00 | 0.00 | 0.00 | 68 | 1015.1 |
| 20260901022203 | 74 | 0 | 0.0 | 0.0 | 0.00 | 0.00 | 0.00 | 69 | 1015.1 |
| 20260901022003 | 74 | 0 | 0.0 | 0.0 | 0.00 | 0.00 | 0.00 | 69 | 1015.1 |
| 20260901021824 | 74 | 0 | 0.0 | 0.0 | 0.00 | 0.00 | 0.00 | 68 | 1015.1 |
| 20260901021603 | 74 | 0 | 0.0 | 0.0 | 0.00 | 0.00 | 0.00 | 68 | 1015.1 |
| 20260901021424 | 74 | 0 | 0.0 | 0.0 | 0.00 | 0.00 | 0.00 | 68 | 1015.1 |
| 20260901021203 | 75 | 0 | 0.0 | 0.0 | 0.00 | 0.00 | 0.00 | 67 | 1015.1 |
| 20260901021003 | 75 | 0 | 0.0 | 0.0 | 0.00 | 0.00 | 0.00 | 67 | 1015.1 |
| 20260901020803 | 75 | 0 | 0.0 | 0.0 | 0.00 | 0.00 | 0.00 | 67 | 1015.2 |
| 20260901020603 | 75 | 0 | 0.0 | 0.0 | 0.00 | 0.00 | 0.00 | 67 | 1015.2 |
| 20260901020424 | 75 | 0 | 0.0 | 0.0 | 0.00 | 0.00 | 0.00 | 67 | 1015.3 |
| 20260901020203 | 75 | 0 | 0.0 | 0.0 | 0.00 | 0.00 | 0.00 | 67 | 1015.2 |
| 20260901020003 | 76 | 0 | 0.0 | 0.0 | 0.00 | 0.00 | 0.00 | 66 | 1015.1 |
| 20260901015803 | 76 | 0 | 0.0 | 0.0 | 0.00 | 0.00 | 0.00 | 66 | 1015.2 |
| 20260901015603 | 76 | 0 | 0.0 | 0.0 | 0.00 | 0.00 | 0.00 | 66 | 1015.2 |
| 20260901015403 | 76 | 0 | 0.0 | 0.0 | 0.00 | 0.00 | 0.00 | 66 | 1015.1 |
| 20260901015224 | 76 | 0 | 0.0 | 0.0 | 0.00 | 0.00 | 0.00 | 66 | 1015.1 |
| 20260901015004 | 76 | 0 | 0.0 | 0.0 | 0.00 | 0.00 | 0.00 | 66 | 1015.1 |
| 20260901014803 | 76 | 0 | 0.0 | 0.0 | 0.00 | 0.00 | 0.00 | 66 | 1015.1 |
| 20260901014625 | 76 | 0 | 0.0 | 0.0 | 0.00 | 0.00 | 0.00 | 66 | 1015.1 |
| 20260901014403 | 76 | 0 | 0.0 | 0.0 | 0.00 | 0.00 | 0.00 | 66 | 1015.0 |
| 20260901014203 | 77 | 0 | 0.0 | 0.0 | 0.00 | 0.00 | 0.00 | 66 | 1015.0 |
| 20260901014003 | 77 | 0 | 0.0 | 0.0 | 0.00 | 0.00 | 0.00 | 66 | 1015.0 |
| 20260901013803 | 77 | 0 | 0.0 | 0.0 | 0.00 | 0.00 | 0.00 | 66 | 1015.1 |
| 20260901013624 | 77 | 0 | 0.0 | 0.0 | 0.00 | 0.00 | 0.00 | 66 | 1015.0 |
| 20260901013424 | 77 | 0 | 0.0 | 0.0 | 0.00 | 0.00 | 0.00 | 66 | 1015.0 |
| 20260901013203 | 77 | 0 | 0.0 | 0.0 | 0.00 | 0.00 | 0.00 | 66 | 1014.9 |
| 20260901013003 | 77 | 0 | 0.0 | 0.0 | 0.00 | 0.00 | 0.00 | 66 | 1014.9 |
| 20260901012803 | 77 | 0 | 0.0 | 0.0 | 0.00 | 0.00 | 0.00 | 66 | 1014.8 |
| 20260901012624 | 77 | 0 | 0.0 | 0.0 | 0.00 | 0.00 | 0.00 | 66 | 1014.8 |
| 20260901012403 | 77 | 0 | 0.0 | 0.0 | 0.00 | 0.00 | 0.00 | 66 | 1014.7 |
| 20260901012204 | 77 | 0 | 0.0 | 0.0 | 0.00 | 0.00 | 0.00 | 66 | 1014.7 |
| 20260901012003 | 77 | 0 | 0.0 | 0.0 | 0.00 | 0.00 | 0.00 | 66 | 1014.6 |
| 20260901011824 | 77 | 0 | 0.0 | 0.0 | 0.00 | 0.00 | 0.00 | 66 | 1014.7 |
| 20260901011603 | 77 | 0 | 0.0 | 0.0 | 0.00 | 0.00 | 0.00 | 66 | 1014.6 |
| 20260901011424 | 77 | 0 | 0.0 | 0.0 | 0.00 | 0.00 | 0.00 | 66 | 1014.6 |
| 20260901011203 | 77 | 0 | 0.0 | 0.0 | 0.00 | 0.00 | 0.00 | 66 | 1014.6 |
| 20260901011024 | 77 | 0 | 0.0 | 0.0 | 0.00 | 0.00 | 0.00 | 66 | 1014.6 |
| 20260901010803 | 78 | 302 | 0.0 | 1.0 | 0.00 | 0.00 | 0.00 | 65 | 1014.5 |
| 20260901010624 | 78 | 302 | 0.0 | 1.0 | 0.00 | 0.00 | 0.00 | 65 | 1014.5 |
| 20260901010403 | 78 | 302 | 0.0 | 1.0 | 0.00 | 0.00 | 0.00 | 65 | 1014.5 |
| 20260901010203 | 78 | 302 | 0.0 | 1.0 | 0.00 | 0.00 | 0.00 | 65 | 1014.4 |
| 20260901010003 | 78 | 302 | 0.0 | 1.0 | 0.00 | 0.00 | 0.00 | 65 | 1014.3 |
| 20260901005824 | 78 | 302 | 0.0 | 1.0 | 0.00 | 0.00 | 0.00 | 65 | 1014.3 |
| 20260901005603 | 78 | 0 | 0.0 | 0.0 | 0.00 | 0.00 | 0.00 | 65 | 1014.2 |
| 20260901005403 | 78 | 0 | 0.0 | 0.0 | 0.00 | 0.00 | 0.00 | 65 | 1014.2 |
| 20260901005203 | 78 | 0 | 0.0 | 0.0 | 0.00 | 0.00 | 0.00 | 65 | 1014.1 |
| 20260901005003 | 78 | 0 | 0.0 | 0.0 | 0.00 | 0.00 | 0.00 | 65 | 1014.1 |
| 20260901004803 | 78 | 302 | 0.0 | 1.0 | 0.00 | 0.00 | 0.00 | 65 | 1014.1 |
| 20260901004603 | 78 | 302 | 0.0 | 1.0 | 0.00 | 0.00 | 0.00 | 65 | 1014.1 |
| 20260901004403 | 78 | 302 | 0.0 | 1.0 | 0.00 | 0.00 | 0.00 | 65 | 1014.0 |
| 20260901004203 | 78 | 302 | 0.0 | 1.0 | 0.00 | 0.00 | 0.00 | 65 | 1014.0 |
| 20260901004003 | 78 | 302 | 0.0 | 1.0 | 0.00 | 0.00 | 0.00 | 65 | 1014.1 |
| 20260901003803 | 78 | 0 | 0.0 | 0.0 | 0.00 | 0.00 | 0.00 | 65 | 1014.1 |
| 20260901003603 | 78 | 0 | 0.0 | 0.0 | 0.00 | 0.00 | 0.00 | 65 | 1014.2 |
| 20260901003403 | 78 | 0 | 0.0 | 0.0 | 0.00 | 0.00 | 0.00 | 65 | 1014.2 |
| 20260901003203 | 78 | 0 | 0.0 | 0.0 | 0.00 | 0.00 | 0.00 | 65 | 1014.2 |
| 20260901003003 | 78 | 302 | 0.0 | 1.0 | 0.00 | 0.00 | 0.00 | 65 | 1014.2 |
| 20260901002803 | 78 | 302 | 0.0 | 1.0 | 0.00 | 0.00 | 0.00 | 65 | 1014.2 |
| 20260901002603 | 78 | 302 | 0.0 | 2.0 | 0.00 | 0.00 | 0.00 | 65 | 1014.2 |
| 20260901002403 | 78 | 302 | 0.0 | 2.0 | 0.00 | 0.00 | 0.00 | 65 | 1014.1 |
| 20260901002203 | 78 | 302 | 0.0 | 2.0 | 0.00 | 0.00 | 0.00 | 65 | 1014.1 |
| 20260901002003 | 78 | 302 | 0.0 | 2.0 | 0.00 | 0.00 | 0.00 | 65 | 1014.2 |
| 20260901001803 | 79 | 302 | 0.0 | 2.0 | 0.00 | 0.00 | 0.00 | 65 | 1014.2 |
| 20260901001603 | 79 | 300 | 0.0 | 1.0 | 0.00 | 0.00 | 0.00 | 65 | 1014.2 |
| 20260901001403 | 79 | 300 | 0.0 | 1.0 | 0.00 | 0.00 | 0.00 | 65 | 1014.1 |
| 20260901001203 | 79 | 300 | 0.0 | 2.0 | 0.00 | 0.00 | 0.00 | 64 | 1014.1 |
| 20260901001003 | 79 | 300 | 0.0 | 2.0 | 0.00 | 0.00 | 0.00 | 64 | 1014.1 |
| 20260901000803 | 79 | 300 | 0.0 | 2.0 | 0.00 | 0.00 | 0.00 | 64 | 1014.1 |
| 20260901000603 | 79 | 300 | 0.0 | 2.0 | 0.00 | 0.00 | 0.00 | 64 | 1014.1 |
| 20260901000405 | 79 | 301 | 0.0 | 2.0 | 0.00 | 0.00 | 0.00 | 64 | 1014.1 |
| 20260901000204 | 79 | 304 | 0.0 | 1.0 | 0.00 | 0.00 | 0.00 | 64 | 1014.2 |
| 20260901000024 | 79 | 304 | 0.0 | 2.0 | 0.00 | 0.00 | 0.00 | 64 | 1014.2 |
| 20260831235824 | 79 | 304 | 0.0 | 2.0 | 0.00 | 0.00 | 0.00 | 64 | 1014.2 |
| 20260831235626 | 79 | 304 | 0.0 | 2.0 | 0.00 | 0.00 | 0.00 | 64 | 1014.3 |
| 20260831235403 | 79 | 304 | 1.0 | 2.0 | 0.00 | 0.00 | 0.00 | 64 | 1014.3 |
| 20260831235224 | 79 | 304 | 1.0 | 2.0 | 0.00 | 0.00 | 0.00 | 64 | 1014.3 |
| 20260831235004 | 79 | 304 | 1.0 | 2.0 | 0.00 | 0.00 | 0.00 | 64 | 1014.3 |
| 20260831234803 | 79 | 304 | 1.0 | 2.0 | 0.00 | 0.00 | 0.00 | 64 | 1014.3 |
| 20260831234603 | 79 | 304 | 0.0 | 2.0 | 0.00 | 0.00 | 0.00 | 63 | 1014.3 |
| 20260831234403 | 79 | 303 | 0.0 | 2.0 | 0.00 | 0.00 | 0.00 | 63 | 1014.1 |
| 20260831234224 | 79 | 303 | 0.0 | 2.0 | 0.00 | 0.00 | 0.00 | 63 | 1014.1 |
| 20260831234024 | 79 | 302 | 0.0 | 1.0 | 0.00 | 0.00 | 0.00 | 63 | 1014.0 |
| 20260831233803 | 80 | 304 | 0.0 | 1.0 | 0.00 | 0.00 | 0.00 | 63 | 1014.0 |
| 20260831233605 | 80 | 304 | 0.0 | 2.0 | 0.00 | 0.00 | 0.00 | 63 | 1014.1 |
| 20260831233403 | 80 | 304 | 0.0 | 2.0 | 0.00 | 0.00 | 0.00 | 62 | 1014.2 |
| 20260831233203 | 80 | 304 | 0.0 | 2.0 | 0.00 | 0.00 | 0.00 | 62 | 1014.3 |
| 20260831233025 | 80 | 304 | 0.0 | 2.0 | 0.00 | 0.00 | 0.00 | 62 | 1014.3 |
| 20260831232805 | 80 | 304 | 0.0 | 2.0 | 0.00 | 0.00 | 0.00 | 62 | 1014.2 |
| 20260831232603 | 80 | 303 | 0.0 | 2.0 | 0.00 | 0.00 | 0.00 | 62 | 1014.1 |
| 20260831232404 | 80 | 301 | 0.0 | 2.0 | 0.00 | 0.00 | 0.00 | 61 | 1014.1 |
| 20260831232205 | 80 | 298 | 0.0 | 2.0 | 0.00 | 0.00 | 0.00 | 61 | 1014.1 |
| 20260831232005 | 80 | 295 | 0.0 | 2.0 | 0.00 | 0.00 | 0.00 | 61 | 1014.1 |
| 20260831231803 | 80 | 288 | 1.0 | 3.0 | 0.00 | 0.00 | 0.00 | 61 | 1014.1 |
| 20260831231603 | 80 | 288 | 1.0 | 3.0 | 0.00 | 0.00 | 0.00 | 61 | 1014.1 |
| 20260831231403 | 81 | 287 | 1.0 | 3.0 | 0.00 | 0.00 | 0.00 | 61 | 1014.1 |
| 20260831231204 | 81 | 288 | 1.0 | 3.0 | 0.00 | 0.00 | 0.00 | 61 | 1014.0 |
| 20260831231004 | 81 | 287 | 1.0 | 3.0 | 0.00 | 0.00 | 0.00 | 61 | 1013.9 |
| 20260831230826 | 81 | 291 | 1.0 | 3.0 | 0.00 | 0.00 | 0.00 | 61 | 1013.9 |
| 20260831230603 | 81 | 299 | 1.0 | 5.0 | 0.00 | 0.00 | 0.00 | 60 | 1014.0 |
| 20260831230404 | 81 | 299 | 1.0 | 5.0 | 0.00 | 0.00 | 0.00 | 60 | 1014.0 |
| 20260831230203 | 81 | 298 | 2.0 | 6.0 | 0.00 | 0.00 | 0.00 | 60 | 1013.9 |
| 20260831230006 | 81 | 297 | 2.0 | 7.0 | 0.00 | 0.00 | 0.00 | 60 | 1014.0 |
| 20260831225806 | 81 | 296 | 2.0 | 7.0 | 0.00 | 0.00 | 0.00 | 60 | 1014.0 |
| 20260831225603 | 81 | 293 | 2.0 | 7.0 | 0.00 | 0.00 | 0.00 | 60 | 1014.0 |
| 20260831225404 | 81 | 290 | 2.0 | 7.0 | 0.00 | 0.00 | 0.00 | 60 | 1013.9 |
| 20260831225204 | 81 | 291 | 2.0 | 7.0 | 0.00 | 0.00 | 0.00 | 60 | 1014.1 |
| 20260831225003 | 81 | 294 | 2.0 | 5.0 | 0.00 | 0.00 | 0.00 | 60 | 1014.2 |
| 20260831224803 | 81 | 294 | 2.0 | 5.0 | 0.00 | 0.00 | 0.00 | 59 | 1014.2 |
| 20260831224603 | 81 | 296 | 1.0 | 5.0 | 0.00 | 0.00 | 0.00 | 59 | 1014.3 |
| 20260831224403 | 81 | 302 | 1.0 | 4.0 | 0.00 | 0.00 | 0.00 | 59 | 1014.5 |
| 20260831224205 | 81 | 307 | 1.0 | 3.0 | 0.00 | 0.00 | 0.00 | 59 | 1014.5 |
| 20260831224026 | 81 | 304 | 1.0 | 2.0 | 0.00 | 0.00 | 0.00 | 59 | 1014.6 |
| 20260831223804 | 81 | 298 | 1.0 | 3.0 | 0.00 | 0.00 | 0.00 | 59 | 1014.7 |
| 20260831223603 | 81 | 294 | 1.0 | 3.0 | 0.00 | 0.00 | 0.00 | 59 | 1014.8 |
| 20260831223405 | 81 | 292 | 2.0 | 5.0 | 0.00 | 0.00 | 0.00 | 59 | 1014.9 |
| 20260831223205 | 81 | 294 | 2.0 | 5.0 | 0.00 | 0.00 | 0.00 | 59 | 1014.8 |
| 20260831223003 | 81 | 297 | 2.0 | 5.0 | 0.00 | 0.00 | 0.00 | 59 | 1014.9 |
| 20260831222805 | 81 | 297 | 2.0 | 5.0 | 0.00 | 0.00 | 0.00 | 59 | 1015.2 |
| 20260831222625 | 81 | 298 | 2.0 | 5.0 | 0.00 | 0.00 | 0.00 | 59 | 1015.3 |
| 20260831222403 | 81 | 301 | 1.0 | 5.0 | 0.00 | 0.00 | 0.00 | 59 | 1015.3 |
| 20260831222203 | 81 | 301 | 0.0 | 5.0 | 0.00 | 0.00 | 0.00 | 59 | 1015.3 |
| 20260831222003 | 82 | 300 | 0.0 | 3.0 | 0.00 | 0.00 | 0.00 | 58 | 1015.3 |
| 20260831221806 | 82 | 0 | 0.0 | 0.0 | 0.00 | 0.00 | 0.00 | 58 | 1015.1 |
| 20260831221603 | 82 | 0 | 0.0 | 0.0 | 0.00 | 0.00 | 0.00 | 58 | 1015.0 |
| 20260831221403 | 82 | 0 | 0.0 | 0.0 | 0.00 | 0.00 | 0.00 | 58 | 1015.1 |
| 20260831221224 | 82 | 0 | 0.0 | 0.0 | 0.00 | 0.00 | 0.00 | 58 | 1015.1 |
| 20260831221004 | 82 | 0 | 0.0 | 0.0 | 0.00 | 0.00 | 0.00 | 58 | 1015.5 |
| 20260831220803 | 82 | 0 | 0.0 | 0.0 | 0.00 | 0.00 | 0.00 | 58 | 1015.6 |
| 20260831220603 | 82 | 0 | 0.0 | 0.0 | 0.00 | 0.00 | 0.00 | 58 | 1015.6 |
| 20260831220403 | 82 | 0 | 0.0 | 0.0 | 0.00 | 0.00 | 0.00 | 58 | 1015.5 |
| 20260831220205 | 82 | 0 | 0.0 | 0.0 | 0.00 | 0.00 | 0.00 | 58 | 1015.4 |
| 20260831220006 | 83 | 0 | 0.0 | 0.0 | 0.00 | 0.00 | 0.00 | 58 | 1015.4 |
| 20260831215826 | 82 | 0 | 0.0 | 0.0 | 0.00 | 0.00 | 0.00 | 57 | 1015.3 |
| 20260831215626 | 82 | 0 | 0.0 | 0.0 | 0.00 | 0.00 | 0.00 | 57 | 1015.2 |
| 20260831215403 | 82 | 0 | 0.0 | 0.0 | 0.00 | 0.00 | 0.00 | 58 | 1015.1 |
| 20260831215203 | 83 | 0 | 0.0 | 0.0 | 0.00 | 0.00 | 0.00 | 59 | 1015.1 |
| 20260831215003 | 83 | 0 | 0.0 | 0.0 | 0.00 | 0.00 | 0.00 | 57 | 1015.1 |
| 20260831214803 | 83 | 0 | 0.0 | 0.0 | 0.00 | 0.00 | 0.00 | 58 | 1015.1 |
| 20260831214603 | 83 | 0 | 0.0 | 0.0 | 0.00 | 0.00 | 0.00 | 57 | 1015.2 |
| 20260831214403 | 83 | 0 | 0.0 | 0.0 | 0.00 | 0.00 | 0.00 | 57 | 1015.2 |
| 20260831214203 | 83 | 0 | 0.0 | 0.0 | 0.00 | 0.00 | 0.00 | 56 | 1015.3 |
| 20260831214003 | 83 | 0 | 0.0 | 0.0 | 0.00 | 0.00 | 0.00 | 56 | 1015.3 |
| 20260831213803 | 84 | 0 | 0.0 | 0.0 | 0.00 | 0.00 | 0.00 | 55 | 1015.3 |
| 20260831213603 | 84 | 0 | 0.0 | 0.0 | 0.00 | 0.00 | 0.00 | 54 | 1015.0 |
| 20260831213403 | 84 | 0 | 0.0 | 0.0 | 0.00 | 0.00 | 0.00 | 54 | 1015.0 |
| 20260831213203 | 84 | 0 | 0.0 | 0.0 | 0.00 | 0.00 | 0.00 | 54 | 1015.0 |
| 20260831213003 | 84 | 0 | 0.0 | 0.0 | 0.00 | 0.00 | 0.00 | 54 | 1015.1 |
| 20260831212803 | 84 | 0 | 0.0 | 0.0 | 0.00 | 0.00 | 0.00 | 54 | 1015.1 |
| 20260831212624 | 84 | 0 | 0.0 | 0.0 | 0.00 | 0.00 | 0.00 | 53 | 1015.1 |
| 20260831212425 | 85 | 0 | 0.0 | 0.0 | 0.00 | 0.00 | 0.00 | 52 | 1015.1 |
| 20260831212203 | 85 | 0 | 0.0 | 0.0 | 0.00 | 0.00 | 0.00 | 51 | 1015.1 |
| 20260831212003 | 85 | 0 | 0.0 | 0.0 | 0.00 | 0.00 | 0.00 | 52 | 1015.1 |
| 20260831211803 | 85 | 0 | 0.0 | 0.0 | 0.00 | 0.00 | 0.00 | 51 | 1015.1 |
| 20260831211603 | 85 | 0 | 0.0 | 0.0 | 0.00 | 0.00 | 0.00 | 51 | 1015.2 |
| 20260831211403 | 85 | 0 | 0.0 | 0.0 | 0.00 | 0.00 | 0.00 | 51 | 1015.2 |
| 20260831211203 | 85 | 0 | 0.0 | 0.0 | 0.00 | 0.00 | 0.00 | 51 | 1015.3 |
| 20260831211024 | 85 | 0 | 0.0 | 0.0 | 0.00 | 0.00 | 0.00 | 50 | 1015.3 |
| 20260831210803 | 85 | 0 | 0.0 | 0.0 | 0.00 | 0.00 | 0.00 | 50 | 1015.3 |
| 20260831210603 | 85 | 0 | 0.0 | 0.0 | 0.00 | 0.00 | 0.00 | 50 | 1015.4 |
| 20260831210403 | 85 | 0 | 0.0 | 0.0 | 0.00 | 0.00 | 0.00 | 52 | 1015.3 |
| 20260831210204 | 85 | 0 | 0.0 | 0.0 | 0.00 | 0.00 | 0.00 | 51 | 1015.3 |
| 20260831210004 | 85 | 308 | 0.0 | 3.0 | 0.00 | 0.00 | 0.00 | 50 | 1015.3 |
| 20260831205803 | 85 | 308 | 0.0 | 3.0 | 0.00 | 0.00 | 0.00 | 50 | 1015.3 |
| 20260831205603 | 85 | 308 | 0.0 | 3.0 | 0.00 | 0.00 | 0.00 | 50 | 1015.3 |
| 20260831205403 | 85 | 308 | 0.0 | 3.0 | 0.00 | 0.00 | 0.00 | 49 | 1015.2 |
| 20260831205204 | 86 | 305 | 0.0 | 3.0 | 0.00 | 0.00 | 0.00 | 49 | 1015.1 |
| 20260831205004 | 86 | 290 | 0.0 | 4.0 | 0.00 | 0.00 | 0.00 | 49 | 1015.0 |
| 20260831204803 | 86 | 289 | 0.0 | 4.0 | 0.00 | 0.00 | 0.00 | 49 | 1015.0 |
| 20260831204624 | 86 | 296 | 0.0 | 4.0 | 0.00 | 0.00 | 0.00 | 49 | 1015.0 |
| 20260831204424 | 86 | 297 | 0.0 | 4.0 | 0.00 | 0.00 | 0.00 | 48 | 1015.0 |
| 20260831204203 | 87 | 303 | 1.0 | 8.0 | 0.00 | 0.00 | 0.00 | 48 | 1014.9 |
| 20260831204003 | 87 | 304 | 1.0 | 8.0 | 0.00 | 0.00 | 0.00 | 48 | 1014.8 |
| 20260831203803 | 87 | 301 | 1.0 | 8.0 | 0.00 | 0.00 | 0.00 | 47 | 1014.8 |
| 20260831203603 | 87 | 300 | 2.0 | 8.0 | 0.00 | 0.00 | 0.00 | 47 | 1014.8 |
| 20260831203404 | 87 | 299 | 2.0 | 8.0 | 0.00 | 0.00 | 0.00 | 47 | 1014.9 |
| 20260831203203 | 88 | 300 | 2.0 | 6.0 | 0.00 | 0.00 | 0.00 | 47 | 1014.9 |
| 20260831203024 | 88 | 299 | 2.0 | 6.0 | 0.00 | 0.00 | 0.00 | 46 | 1014.9 |
| 20260831202803 | 88 | 298 | 3.0 | 9.0 | 0.00 | 0.00 | 0.00 | 46 | 1014.9 |
| 20260831202604 | 88 | 298 | 3.0 | 9.0 | 0.00 | 0.00 | 0.00 | 48 | 1014.9 |
| 20260831202403 | 88 | 296 | 3.0 | 9.0 | 0.00 | 0.00 | 0.00 | 47 | 1014.9 |
| 20260831202224 | 88 | 294 | 3.0 | 9.0 | 0.00 | 0.00 | 0.00 | 47 | 1014.9 |
| 20260831202003 | 88 | 296 | 3.0 | 9.0 | 0.00 | 0.00 | 0.00 | 45 | 1014.8 |
| 20260831201803 | 88 | 296 | 3.0 | 9.0 | 0.00 | 0.00 | 0.00 | 45 | 1014.8 |
| 20260831201603 | 88 | 297 | 4.0 | 9.0 | 0.00 | 0.00 | 0.00 | 44 | 1014.7 |
| 20260831201424 | 88 | 297 | 3.0 | 9.0 | 0.00 | 0.00 | 0.00 | 46 | 1014.8 |
| 20260831201224 | 88 | 297 | 3.0 | 9.0 | 0.00 | 0.00 | 0.00 | 46 | 1014.7 |
| 20260831201003 | 88 | 298 | 4.0 | 9.0 | 0.00 | 0.00 | 0.00 | 46 | 1014.7 |
| 20260831200803 | 88 | 297 | 3.0 | 8.0 | 0.00 | 0.00 | 0.00 | 45 | 1014.7 |
| 20260831200603 | 88 | 297 | 4.0 | 8.0 | 0.00 | 0.00 | 0.00 | 45 | 1014.7 |
| 20260831200403 | 88 | 299 | 4.0 | 8.0 | 0.00 | 0.00 | 0.00 | 45 | 1014.7 |
| 20260831200203 | 88 | 300 | 5.0 | 8.0 | 0.00 | 0.00 | 0.00 | 46 | 1014.7 |
| 20260831200003 | 88 | 300 | 5.0 | 8.0 | 0.00 | 0.00 | 0.00 | 47 | 1014.8 |
| 20260831195803 | 88 | 300 | 5.0 | 8.0 | 0.00 | 0.00 | 0.00 | 47 | 1014.8 |
| 20260831195603 | 88 | 299 | 5.0 | 10.0 | 0.00 | 0.00 | 0.00 | 47 | 1014.9 |
| 20260831195403 | 88 | 296 | 5.0 | 10.0 | 0.00 | 0.00 | 0.00 | 48 | 1014.8 |
| 20260831195203 | 88 | 295 | 5.0 | 10.0 | 0.00 | 0.00 | 0.00 | 46 | 1014.8 |
| 20260831195003 | 87 | 295 | 5.0 | 10.0 | 0.00 | 0.00 | 0.00 | 47 | 1014.9 |
| 20260831194803 | 87 | 296 | 5.0 | 10.0 | 0.00 | 0.00 | 0.00 | 46 | 1014.9 |
| 20260831194603 | 87 | 296 | 5.0 | 10.0 | 0.00 | 0.00 | 0.00 | 47 | 1015.0 |
| 20260831194424 | 87 | 296 | 6.0 | 10.0 | 0.00 | 0.00 | 0.00 | 48 | 1015.0 |
| 20260831194203 | 87 | 297 | 4.0 | 10.0 | 0.00 | 0.00 | 0.00 | 47 | 1015.1 |
| 20260831194003 | 87 | 297 | 3.0 | 10.0 | 0.00 | 0.00 | 0.00 | 48 | 1015.1 |
| 20260831193803 | 87 | 295 | 3.0 | 10.0 | 0.00 | 0.00 | 0.00 | 47 | 1015.2 |
| 20260831193603 | 87 | 297 | 2.0 | 10.0 | 0.00 | 0.00 | 0.00 | 47 | 1015.2 |
| 20260831193404 | 87 | 298 | 2.0 | 8.0 | 0.00 | 0.00 | 0.00 | 50 | 1015.2 |
| 20260831193203 | 87 | 298 | 2.0 | 8.0 | 0.00 | 0.00 | 0.00 | 50 | 1015.1 |
| 20260831193024 | 87 | 298 | 2.0 | 8.0 | 0.00 | 0.00 | 0.00 | 48 | 1015.2 |
| 20260831192824 | 87 | 298 | 3.0 | 8.0 | 0.00 | 0.00 | 0.00 | 50 | 1015.2 |
| 20260831192603 | 87 | 296 | 3.0 | 8.0 | 0.00 | 0.00 | 0.00 | 52 | 1015.2 |
| 20260831192403 | 86 | 297 | 3.0 | 8.0 | 0.00 | 0.00 | 0.00 | 51 | 1015.3 |
| 20260831192203 | 86 | 296 | 4.0 | 8.0 | 0.00 | 0.00 | 0.00 | 51 | 1015.3 |
| 20260831192003 | 86 | 295 | 4.0 | 9.0 | 0.00 | 0.00 | 0.00 | 51 | 1015.3 |
| 20260831191803 | 86 | 295 | 4.0 | 9.0 | 0.00 | 0.00 | 0.00 | 52 | 1015.3 |
| 20260831191603 | 86 | 297 | 5.0 | 9.0 | 0.00 | 0.00 | 0.00 | 52 | 1015.5 |
| 20260831191403 | 86 | 297 | 4.0 | 9.0 | 0.00 | 0.00 | 0.00 | 51 | 1015.6 |
| 20260831191203 | 86 | 297 | 4.0 | 9.0 | 0.00 | 0.00 | 0.00 | 52 | 1015.5 |
| 20260831191003 | 86 | 298 | 3.0 | 9.0 | 0.00 | 0.00 | 0.00 | 51 | 1015.6 |
| 20260831190803 | 86 | 297 | 3.0 | 8.0 | 0.00 | 0.00 | 0.00 | 52 | 1015.6 |
| 20260831190603 | 86 | 294 | 3.0 | 8.0 | 0.00 | 0.00 | 0.00 | 52 | 1015.7 |
| 20260831190403 | 86 | 294 | 3.0 | 7.0 | 0.00 | 0.00 | 0.00 | 54 | 1015.7 |
| 20260831190203 | 85 | 294 | 3.0 | 7.0 | 0.00 | 0.00 | 0.00 | 52 | 1015.7 |
| 20260831190003 | 85 | 295 | 2.0 | 7.0 | 0.00 | 0.00 | 0.00 | 52 | 1015.8 |
| 20260831185803 | 85 | 297 | 3.0 | 8.0 | 0.00 | 0.00 | 0.00 | 53 | 1015.8 |
| 20260831185603 | 85 | 295 | 3.0 | 9.0 | 0.00 | 0.00 | 0.00 | 52 | 1015.8 |
| 20260831185404 | 85 | 298 | 4.0 | 9.0 | 0.00 | 0.00 | 0.00 | 54 | 1015.8 |
| 20260831185203 | 85 | 296 | 4.0 | 9.0 | 0.00 | 0.00 | 0.00 | 52 | 1015.8 |
| 20260831185003 | 85 | 295 | 5.0 | 10.0 | 0.00 | 0.00 | 0.00 | 51 | 1015.8 |
| 20260831184803 | 86 | 295 | 5.0 | 10.0 | 0.00 | 0.00 | 0.00 | 49 | 1015.7 |
| 20260831184603 | 86 | 297 | 5.0 | 10.0 | 0.00 | 0.00 | 0.00 | 51 | 1015.8 |
| 20260831184403 | 86 | 296 | 6.0 | 12.0 | 0.00 | 0.00 | 0.00 | 50 | 1015.8 |
| 20260831184203 | 86 | 296 | 6.0 | 12.0 | 0.00 | 0.00 | 0.00 | 49 | 1015.7 |
| 20260831184024 | 86 | 296 | 6.0 | 12.0 | 0.00 | 0.00 | 0.00 | 48 | 1015.7 |
| 20260831183803 | 86 | 296 | 6.0 | 12.0 | 0.00 | 0.00 | 0.00 | 50 | 1015.8 |
| 20260831183603 | 85 | 295 | 6.0 | 12.0 | 0.00 | 0.00 | 0.00 | 50 | 1015.8 |
| 20260831183424 | 85 | 294 | 6.0 | 10.0 | 0.00 | 0.00 | 0.00 | 49 | 1015.9 |
| 20260831183224 | 85 | 294 | 6.0 | 10.0 | 0.00 | 0.00 | 0.00 | 50 | 1016.0 |
| 20260831183003 | 85 | 295 | 6.0 | 10.0 | 0.00 | 0.00 | 0.00 | 51 | 1015.9 |
| 20260831182803 | 85 | 296 | 6.0 | 10.0 | 0.00 | 0.00 | 0.00 | 50 | 1015.9 |
| 20260831182603 | 85 | 295 | 5.0 | 10.0 | 0.00 | 0.00 | 0.00 | 50 | 1016.0 |
| 20260831182403 | 85 | 296 | 5.0 | 10.0 | 0.00 | 0.00 | 0.00 | 51 | 1016.1 |
| 20260831182203 | 85 | 298 | 4.0 | 9.0 | 0.00 | 0.00 | 0.00 | 52 | 1016.1 |
| 20260831182003 | 85 | 296 | 4.0 | 9.0 | 0.00 | 0.00 | 0.00 | 52 | 1016.1 |
| 20260831181803 | 85 | 296 | 4.0 | 9.0 | 0.00 | 0.00 | 0.00 | 53 | 1016.2 |
| 20260831181603 | 85 | 297 | 4.0 | 8.0 | 0.00 | 0.00 | 0.00 | 54 | 1016.1 |
| 20260831181403 | 84 | 297 | 4.0 | 9.0 | 0.00 | 0.00 | 0.00 | 56 | 1016.2 |
| 20260831181203 | 84 | 296 | 4.0 | 9.0 | 0.00 | 0.00 | 0.00 | 55 | 1016.3 |
| 20260831181003 | 84 | 296 | 5.0 | 9.0 | 0.00 | 0.00 | 0.00 | 56 | 1016.3 |
| 20260831180803 | 83 | 297 | 4.0 | 9.0 | 0.00 | 0.00 | 0.00 | 54 | 1016.3 |
| 20260831180604 | 83 | 296 | 4.0 | 9.0 | 0.00 | 0.00 | 0.00 | 55 | 1016.4 |
| 20260831180403 | 83 | 295 | 4.0 | 7.0 | 0.00 | 0.00 | 0.00 | 55 | 1016.3 |
| 20260831180203 | 83 | 294 | 4.0 | 7.0 | 0.00 | 0.00 | 0.00 | 56 | 1016.3 |
| 20260831180024 | 82 | 293 | 4.0 | 7.0 | 0.00 | 0.00 | 0.00 | 58 | 1016.3 |
| 20260831175803 | 82 | 294 | 4.0 | 7.0 | 0.00 | 0.00 | 0.00 | 56 | 1016.3 |
| 20260831175603 | 82 | 294 | 4.0 | 8.0 | 0.00 | 0.00 | 0.00 | 56 | 1016.4 |
| 20260831175403 | 82 | 294 | 4.0 | 8.0 | 0.00 | 0.00 | 0.00 | 58 | 1016.3 |
| 20260831175203 | 82 | 294 | 4.0 | 8.0 | 0.00 | 0.00 | 0.00 | 57 | 1016.4 |
| 20260831175024 | 82 | 296 | 4.0 | 8.0 | 0.00 | 0.00 | 0.00 | 57 | 1016.4 |
| 20260831174803 | 82 | 295 | 3.0 | 8.0 | 0.00 | 0.00 | 0.00 | 57 | 1016.4 |
| 20260831174603 | 82 | 297 | 3.0 | 8.0 | 0.00 | 0.00 | 0.00 | 58 | 1016.5 |
| 20260831174403 | 82 | 299 | 3.0 | 8.0 | 0.00 | 0.00 | 0.00 | 57 | 1016.5 |
| 20260831174203 | 81 | 300 | 3.0 | 8.0 | 0.00 | 0.00 | 0.00 | 58 | 1016.5 |
| 20260831174003 | 81 | 298 | 3.0 | 8.0 | 0.00 | 0.00 | 0.00 | 59 | 1016.6 |
| 20260831173824 | 81 | 299 | 3.0 | 9.0 | 0.00 | 0.00 | 0.00 | 59 | 1016.6 |
| 20260831173603 | 80 | 297 | 3.0 | 9.0 | 0.00 | 0.00 | 0.00 | 59 | 1016.6 |
| 20260831173403 | 80 | 296 | 3.0 | 9.0 | 0.00 | 0.00 | 0.00 | 61 | 1016.6 |
| 20260831173224 | 80 | 297 | 3.0 | 9.0 | 0.00 | 0.00 | 0.00 | 60 | 1016.7 |
| 20260831173003 | 80 | 299 | 3.0 | 9.0 | 0.00 | 0.00 | 0.00 | 59 | 1016.8 |
| 20260831172824 | 80 | 302 | 3.0 | 9.0 | 0.00 | 0.00 | 0.00 | 60 | 1016.8 |
| 20260831172603 | 80 | 305 | 2.0 | 7.0 | 0.00 | 0.00 | 0.00 | 60 | 1017.0 |
| 20260831172403 | 80 | 304 | 3.0 | 7.0 | 0.00 | 0.00 | 0.00 | 59 | 1017.0 |
| 20260831172203 | 80 | 303 | 3.0 | 7.0 | 0.00 | 0.00 | 0.00 | 59 | 1017.1 |
| 20260831172003 | 80 | 301 | 3.0 | 7.0 | 0.00 | 0.00 | 0.00 | 60 | 1017.0 |
| 20260831171824 | 80 | 297 | 3.0 | 7.0 | 0.00 | 0.00 | 0.00 | 60 | 1017.0 |
| 20260831171603 | 80 | 296 | 3.0 | 7.0 | 0.00 | 0.00 | 0.00 | 59 | 1017.1 |
| 20260831171403 | 80 | 295 | 3.0 | 7.0 | 0.00 | 0.00 | 0.00 | 59 | 1017.1 |
| 20260831171203 | 80 | 294 | 2.0 | 7.0 | 0.00 | 0.00 | 0.00 | 59 | 1017.1 |
| 20260831171003 | 80 | 295 | 2.0 | 7.0 | 0.00 | 0.00 | 0.00 | 59 | 1017.0 |
| 20260831170803 | 80 | 295 | 2.0 | 7.0 | 0.00 | 0.00 | 0.00 | 59 | 1017.0 |
| 20260831170603 | 80 | 295 | 2.0 | 7.0 | 0.00 | 0.00 | 0.00 | 58 | 1016.9 |
| 20260831170403 | 80 | 297 | 2.0 | 7.0 | 0.00 | 0.00 | 0.00 | 59 | 1017.0 |
| 20260831170203 | 80 | 296 | 2.0 | 7.0 | 0.00 | 0.00 | 0.00 | 58 | 1017.1 |
| 20260831170003 | 80 | 295 | 2.0 | 7.0 | 0.00 | 0.00 | 0.00 | 59 | 1017.1 |
| 20260831165803 | 80 | 296 | 2.0 | 8.0 | 0.00 | 0.00 | 0.00 | 58 | 1017.2 |
| 20260831165603 | 80 | 296 | 3.0 | 8.0 | 0.00 | 0.00 | 0.00 | 59 | 1017.3 |
| 20260831165403 | 80 | 295 | 3.0 | 8.0 | 0.00 | 0.00 | 0.00 | 58 | 1017.3 |
| 20260831165203 | 80 | 294 | 3.0 | 8.0 | 0.00 | 0.00 | 0.00 | 58 | 1017.2 |
| 20260831165003 | 80 | 294 | 3.0 | 8.0 | 0.00 | 0.00 | 0.00 | 58 | 1017.2 |
| 20260831164803 | 80 | 294 | 2.0 | 7.0 | 0.00 | 0.00 | 0.00 | 59 | 1017.2 |
| 20260831164603 | 80 | 294 | 2.0 | 7.0 | 0.00 | 0.00 | 0.00 | 58 | 1017.2 |
| 20260831164403 | 80 | 293 | 1.0 | 7.0 | 0.00 | 0.00 | 0.00 | 59 | 1017.3 |
| 20260831164203 | 80 | 295 | 0.0 | 7.0 | 0.00 | 0.00 | 0.00 | 59 | 1017.3 |
| 20260831164003 | 80 | 295 | 0.0 | 6.0 | 0.00 | 0.00 | 0.00 | 60 | 1017.3 |
| 20260831163803 | 80 | 294 | 0.0 | 6.0 | 0.00 | 0.00 | 0.00 | 60 | 1017.2 |
| 20260831163624 | 79 | 291 | 0.0 | 6.0 | 0.00 | 0.00 | 0.00 | 60 | 1017.3 |
| 20260831163403 | 79 | 294 | 0.0 | 2.0 | 0.00 | 0.00 | 0.00 | 60 | 1017.3 |
| 20260831163203 | 79 | 298 | 0.0 | 2.0 | 0.00 | 0.00 | 0.00 | 60 | 1017.3 |
| 20260831163024 | 79 | 296 | 0.0 | 2.0 | 0.00 | 0.00 | 0.00 | 59 | 1017.3 |
| 20260831162803 | 79 | 303 | 0.0 | 1.0 | 0.00 | 0.00 | 0.00 | 60 | 1017.3 |
| 20260831162603 | 79 | 319 | 0.0 | 5.0 | 0.00 | 0.00 | 0.00 | 60 | 1017.4 |
| 20260831162424 | 79 | 315 | 1.0 | 5.0 | 0.00 | 0.00 | 0.00 | 61 | 1017.4 |
| 20260831162203 | 78 | 310 | 1.0 | 5.0 | 0.00 | 0.00 | 0.00 | 60 | 1017.4 |
| 20260831162003 | 78 | 310 | 1.0 | 5.0 | 0.00 | 0.00 | 0.00 | 60 | 1017.4 |
| 20260831161803 | 78 | 317 | 1.0 | 5.0 | 0.00 | 0.00 | 0.00 | 60 | 1017.5 |
| 20260831161603 | 78 | 309 | 1.0 | 6.0 | 0.00 | 0.00 | 0.00 | 59 | 1017.5 |
| 20260831161403 | 78 | 306 | 1.0 | 6.0 | 0.00 | 0.00 | 0.00 | 60 | 1017.6 |
| 20260831161203 | 78 | 307 | 1.0 | 6.0 | 0.00 | 0.01 | 0.00 | 60 | 1017.6 |